| time (UTC) | temp F | wind direction | speed knots | gust knots | rain 1hr in | rain 24hr in | rain mn in | humidity % | barometer mb |
| 20260509221437 | 53 | 67 | 5.2 | 0.0 | 0.00 | 0.00 | 0.00 | 78 | 1062.7 |
| 20260509221330 | 53 | 45 | 4.3 | 0.0 | 0.00 | 0.00 | 0.00 | 78 | 1062.7 |
| 20260509221209 | 53 | 90 | 4.3 | 0.0 | 0.00 | 0.00 | 0.00 | 78 | 1062.7 |
| 20260509221042 | 53 | 45 | 6.1 | 0.0 | 0.00 | 0.00 | 0.00 | 78 | 1062.7 |
| 20260509220934 | 53 | 45 | 2.6 | 0.0 | 0.00 | 0.00 | 0.00 | 78 | 1062.7 |
| 20260509220821 | 53 | 67 | 5.2 | 0.0 | 0.00 | 0.00 | 0.00 | 78 | 1062.7 |
| 20260509220709 | 53 | 45 | 4.3 | 0.0 | 0.00 | 0.00 | 0.00 | 78 | 1062.7 |
| 20260509220547 | 53 | 45 | 4.3 | 0.0 | 0.00 | 0.00 | 0.00 | 78 | 1062.7 |
| 20260509220417 | 53 | 22 | 4.3 | 0.0 | 0.00 | 0.00 | 0.00 | 78 | 1062.8 |
| 20260509220256 | 53 | 45 | 6.1 | 0.0 | 0.00 | 0.00 | 0.00 | 78 | 1062.7 |
| 20260509220144 | 53 | 67 | 4.3 | 0.0 | 0.00 | 0.00 | 0.00 | 78 | 1062.7 |
| 20260509220021 | 53 | 0 | 3.5 | 0.0 | 0.00 | 0.00 | 0.00 | 78 | 1062.7 |
| 20260509215855 | 53 | 45 | 7.0 | 0.0 | 0.00 | 0.00 | 0.00 | 78 | 1062.8 |
| 20260509215740 | 53 | 45 | 3.5 | 0.0 | 0.00 | 0.00 | 0.00 | 78 | 1062.8 |
| 20260509215627 | 53 | 45 | 2.6 | 0.0 | 0.00 | 0.00 | 0.00 | 78 | 1062.8 |
| 20260509215514 | 53 | 45 | 5.2 | 0.0 | 0.00 | 0.00 | 0.00 | 78 | 1062.8 |
| 20260509215409 | 53 | 45 | 3.5 | 0.0 | 0.00 | 0.00 | 0.00 | 78 | 1062.8 |
| 20260509215249 | 53 | 67 | 5.2 | 0.0 | 0.00 | 0.00 | 0.00 | 78 | 1062.8 |
| 20260509215142 | 53 | 22 | 5.2 | 0.0 | 0.00 | 0.00 | 0.00 | 78 | 1062.8 |
| 20260509215022 | 53 | 45 | 5.2 | 0.0 | 0.00 | 0.00 | 0.00 | 78 | 1062.8 |
| 20260509214902 | 53 | 45 | 5.2 | 0.0 | 0.00 | 0.00 | 0.00 | 78 | 1062.8 |
| 20260509214754 | 53 | 22 | 2.6 | 0.0 | 0.00 | 0.00 | 0.00 | 78 | 1062.8 |
| 20260509214641 | 53 | 22 | 0.9 | 0.0 | 0.00 | 0.00 | 0.00 | 78 | 1062.8 |
| 20260509214522 | 53 | 22 | 3.5 | 0.0 | 0.00 | 0.00 | 0.00 | 78 | 1062.8 |
| 20260509214415 | 53 | 0 | 3.5 | 0.0 | 0.00 | 0.00 | 0.00 | 78 | 1062.8 |
| 20260509214253 | 53 | 90 | 0.9 | 0.0 | 0.00 | 0.00 | 0.00 | 78 | 1062.8 |
| 20260509214124 | 53 | 45 | 7.0 | 0.0 | 0.00 | 0.00 | 0.00 | 77 | 1062.8 |
| 20260509214005 | 53 | 67 | 2.6 | 0.0 | 0.00 | 0.00 | 0.00 | 77 | 1062.8 |
| 20260509213850 | 53 | 45 | 5.2 | 0.0 | 0.00 | 0.00 | 0.00 | 77 | 1062.9 |
| 20260509213728 | 53 | 67 | 2.6 | 0.0 | 0.00 | 0.00 | 0.00 | 77 | 1062.8 |
| 20260509213600 | 53 | 45 | 2.6 | 0.0 | 0.00 | 0.00 | 0.00 | 77 | 1062.9 |
| 20260509213446 | 53 | 67 | 1.7 | 0.0 | 0.00 | 0.00 | 0.00 | 77 | 1062.9 |
| 20260509213326 | 53 | 90 | 4.3 | 0.0 | 0.00 | 0.00 | 0.00 | 77 | 1062.9 |
| 20260509213212 | 53 | 112 | 1.7 | 0.0 | 0.00 | 0.00 | 0.00 | 77 | 1063.0 |
| 20260509213101 | 53 | 90 | 4.3 | 0.0 | 0.00 | 0.00 | 0.00 | 77 | 1062.9 |
| 20260509212954 | 53 | 90 | 6.1 | 0.0 | 0.00 | 0.00 | 0.00 | 77 | 1062.9 |
| 20260509212840 | 53 | 90 | 5.2 | 0.0 | 0.00 | 0.00 | 0.00 | 77 | 1063.0 |
| 20260509212721 | 53 | 112 | 7.0 | 0.0 | 0.00 | 0.00 | 0.00 | 77 | 1063.0 |
| 20260509212614 | 53 | 45 | 2.6 | 0.0 | 0.00 | 0.00 | 0.00 | 77 | 1063.0 |
| 20260509212502 | 53 | 67 | 4.3 | 0.0 | 0.00 | 0.00 | 0.00 | 77 | 1063.0 |
| 20260509212357 | 53 | 67 | 2.6 | 0.0 | 0.00 | 0.00 | 0.00 | 77 | 1063.0 |
| 20260509212252 | 53 | 90 | 2.6 | 0.0 | 0.00 | 0.00 | 0.00 | 77 | 1063.0 |
| 20260509212130 | 53 | 67 | 1.7 | 0.0 | 0.00 | 0.00 | 0.00 | 77 | 1063.0 |
| 20260509212009 | 53 | 90 | 3.5 | 0.0 | 0.00 | 0.00 | 0.00 | 77 | 1063.0 |
| 20260509211848 | 53 | 67 | 1.7 | 0.0 | 0.00 | 0.00 | 0.00 | 76 | 1063.1 |
| 20260509211721 | 53 | 90 | 7.0 | 0.0 | 0.00 | 0.00 | 0.00 | 76 | 1063.0 |
| 20260509211613 | 53 | 45 | 7.0 | 0.0 | 0.00 | 0.00 | 0.00 | 76 | 1063.0 |
| 20260509211452 | 53 | 90 | 2.6 | 0.0 | 0.00 | 0.00 | 0.00 | 76 | 1063.1 |
| 20260509211339 | 53 | 45 | 3.5 | 0.0 | 0.00 | 0.00 | 0.00 | 76 | 1063.1 |
| 20260509211220 | 53 | 90 | 4.3 | 0.0 | 0.00 | 0.00 | 0.00 | 76 | 1063.0 |
| 20260509211105 | 53 | 90 | 3.5 | 0.0 | 0.00 | 0.00 | 0.00 | 76 | 1063.0 |
| 20260509210943 | 53 | 112 | 7.8 | 0.0 | 0.00 | 0.00 | 0.00 | 75 | 1063.0 |
| 20260509210833 | 53 | 45 | 5.2 | 0.0 | 0.00 | 0.00 | 0.00 | 75 | 1062.9 |
| 20260509210727 | 53 | 45 | 8.7 | 0.0 | 0.00 | 0.00 | 0.00 | 75 | 1062.9 |
| 20260509210622 | 53 | 90 | 7.8 | 0.0 | 0.00 | 0.00 | 0.00 | 74 | 1062.9 |
| 20260509210517 | 53 | 45 | 0.0 | 0.0 | 0.00 | 0.00 | 0.00 | 74 | 1062.9 |
| 20260509210401 | 53 | 45 | 4.3 | 0.0 | 0.00 | 0.00 | 0.00 | 74 | 1062.9 |
| 20260509210249 | 53 | 90 | 4.3 | 0.0 | 0.00 | 0.00 | 0.00 | 74 | 1063.0 |
| 20260509210127 | 53 | 67 | 4.3 | 0.0 | 0.00 | 0.00 | 0.00 | 74 | 1062.9 |
| 20260509210007 | 53 | 22 | 3.5 | 0.0 | 0.00 | 0.00 | 0.00 | 74 | 1063.0 |
| 20260509205846 | 53 | 45 | 7.0 | 0.0 | 0.00 | 0.00 | 0.00 | 73 | 1063.0 |
| 20260509205733 | 53 | 45 | 6.1 | 0.0 | 0.00 | 0.00 | 0.00 | 73 | 1063.0 |
| 20260509205628 | 53 | 45 | 6.1 | 0.0 | 0.00 | 0.00 | 0.00 | 73 | 1063.0 |
| 20260509205514 | 53 | 45 | 5.2 | 0.0 | 0.00 | 0.00 | 0.00 | 73 | 1063.0 |
| 20260509205345 | 53 | 45 | 7.8 | 0.0 | 0.00 | 0.00 | 0.00 | 72 | 1063.1 |
| 20260509205231 | 53 | 22 | 3.5 | 0.0 | 0.00 | 0.00 | 0.00 | 72 | 1063.0 |
| 20260509205118 | 53 | 90 | 1.7 | 0.0 | 0.00 | 0.00 | 0.00 | 72 | 1063.1 |
| 20260509204948 | 53 | 67 | 5.2 | 0.0 | 0.00 | 0.00 | 0.00 | 73 | 1063.0 |
| 20260509204836 | 53 | 112 | 4.3 | 0.0 | 0.00 | 0.00 | 0.00 | 73 | 1063.1 |
| 20260509204717 | 53 | 90 | 4.3 | 0.0 | 0.00 | 0.00 | 0.00 | 73 | 1063.1 |
| 20260509204610 | 53 | 45 | 2.6 | 0.0 | 0.00 | 0.00 | 0.00 | 73 | 1063.1 |
| 20260509204456 | 53 | 67 | 1.7 | 0.0 | 0.00 | 0.00 | 0.00 | 73 | 1063.1 |
| 20260509204327 | 53 | 45 | 4.3 | 0.0 | 0.00 | 0.00 | 0.00 | 73 | 1063.2 |
| 20260509204213 | 53 | 22 | 3.5 | 0.0 | 0.00 | 0.00 | 0.00 | 74 | 1063.2 |
| 20260509204044 | 53 | 45 | 5.2 | 0.0 | 0.00 | 0.00 | 0.00 | 74 | 1063.2 |
| 20260509203932 | 53 | 67 | 4.3 | 0.0 | 0.00 | 0.00 | 0.00 | 74 | 1063.2 |
| 20260509203809 | 53 | 67 | 0.0 | 0.0 | 0.00 | 0.00 | 0.00 | 74 | 1063.2 |
| 20260509203650 | 53 | 45 | 1.7 | 0.0 | 0.00 | 0.00 | 0.00 | 74 | 1063.2 |
| 20260509203536 | 53 | 67 | 5.2 | 0.0 | 0.00 | 0.00 | 0.00 | 74 | 1063.1 |
| 20260509203417 | 53 | 67 | 2.6 | 0.0 | 0.00 | 0.00 | 0.00 | 74 | 1063.2 |
| 20260509203310 | 53 | 67 | 5.2 | 0.0 | 0.00 | 0.00 | 0.00 | 74 | 1063.2 |
| 20260509203157 | 53 | 67 | 4.3 | 0.0 | 0.00 | 0.00 | 0.00 | 74 | 1063.2 |
| 20260509203035 | 53 | 90 | 3.5 | 0.0 | 0.00 | 0.00 | 0.00 | 74 | 1063.1 |
| 20260509202924 | 53 | 67 | 0.9 | 0.0 | 0.00 | 0.00 | 0.00 | 74 | 1063.1 |
| 20260509202810 | 54 | 45 | 2.6 | 0.0 | 0.00 | 0.00 | 0.00 | 74 | 1063.1 |
| 20260509202545 | 53 | 90 | 2.6 | 0.0 | 0.00 | 0.00 | 0.00 | 74 | 1063.1 |
| 20260509202440 | 54 | 90 | 3.5 | 0.0 | 0.00 | 0.00 | 0.00 | 74 | 1063.2 |
| 20260509202327 | 54 | 45 | 2.6 | 0.0 | 0.00 | 0.00 | 0.00 | 74 | 1063.2 |
| 20260509202221 | 54 | 67 | 3.5 | 0.0 | 0.00 | 0.00 | 0.00 | 74 | 1063.2 |
| 20260509202117 | 54 | 45 | 5.2 | 0.0 | 0.00 | 0.00 | 0.00 | 74 | 1063.3 |
| 20260509202009 | 54 | 45 | 3.5 | 0.0 | 0.00 | 0.00 | 0.00 | 74 | 1063.2 |
| 20260509201856 | 54 | 45 | 2.6 | 0.0 | 0.00 | 0.00 | 0.00 | 74 | 1063.2 |
| 20260509201737 | 54 | 45 | 1.7 | 0.0 | 0.00 | 0.00 | 0.00 | 74 | 1063.2 |
| 20260509201610 | 54 | 45 | 5.2 | 0.0 | 0.00 | 0.00 | 0.00 | 74 | 1063.2 |
| 20260509201457 | 54 | 45 | 7.8 | 0.0 | 0.00 | 0.00 | 0.00 | 74 | 1063.2 |
| 20260509201342 | 54 | 90 | 2.6 | 0.0 | 0.00 | 0.00 | 0.00 | 74 | 1063.2 |
| 20260509201220 | 54 | 45 | 0.0 | 0.0 | 0.00 | 0.00 | 0.00 | 74 | 1063.2 |
| 20260509201107 | 54 | 45 | 6.1 | 0.0 | 0.00 | 0.00 | 0.00 | 74 | 1063.2 |
| 20260509201002 | 54 | 22 | 3.5 | 0.0 | 0.00 | 0.00 | 0.00 | 74 | 1063.2 |
| 20260509200857 | 54 | 67 | 4.3 | 0.0 | 0.00 | 0.00 | 0.00 | 74 | 1063.2 |
| 20260509200750 | 54 | 90 | 1.7 | 0.0 | 0.00 | 0.00 | 0.00 | 74 | 1063.2 |
| 20260509200620 | 54 | 112 | 5.2 | 0.0 | 0.00 | 0.00 | 0.00 | 74 | 1063.2 |
| 20260509200459 | 54 | 67 | 3.5 | 0.0 | 0.00 | 0.00 | 0.00 | 74 | 1063.2 |
| 20260509200349 | 54 | 45 | 4.3 | 0.0 | 0.00 | 0.00 | 0.00 | 74 | 1063.2 |
| 20260509200242 | 54 | 67 | 2.6 | 0.0 | 0.00 | 0.00 | 0.00 | 74 | 1063.2 |
| 20260509200136 | 54 | 45 | 0.0 | 0.0 | 0.00 | 0.00 | 0.00 | 74 | 1063.1 |
| 20260509200007 | 54 | 67 | 2.6 | 0.0 | 0.00 | 0.00 | 0.00 | 74 | 1063.2 |
| 20260509195854 | 54 | 67 | 5.2 | 0.0 | 0.00 | 0.00 | 0.00 | 74 | 1063.1 |
| 20260509195750 | 54 | 45 | 2.6 | 0.0 | 0.00 | 0.00 | 0.00 | 74 | 1063.1 |
| 20260509195644 | 54 | 90 | 0.0 | 0.0 | 0.00 | 0.00 | 0.00 | 73 | 1063.1 |
| 20260509195539 | 54 | 67 | 0.9 | 0.0 | 0.00 | 0.00 | 0.00 | 73 | 1063.1 |
| 20260509195420 | 54 | 45 | 3.5 | 0.0 | 0.00 | 0.00 | 0.00 | 73 | 1063.1 |
| 20260509195306 | 54 | 45 | 2.6 | 0.0 | 0.00 | 0.00 | 0.00 | 73 | 1063.1 |
| 20260509195151 | 54 | 90 | 2.6 | 0.0 | 0.00 | 0.00 | 0.00 | 73 | 1063.1 |
| 20260509195022 | 54 | 90 | 2.6 | 0.0 | 0.00 | 0.00 | 0.00 | 73 | 1063.2 |
| 20260509194855 | 54 | 22 | 5.2 | 0.0 | 0.00 | 0.00 | 0.00 | 73 | 1063.3 |
| 20260509194740 | 54 | 45 | 4.3 | 0.0 | 0.00 | 0.00 | 0.00 | 73 | 1063.3 |
| 20260509194618 | 54 | 45 | 5.2 | 0.0 | 0.00 | 0.00 | 0.00 | 73 | 1063.4 |
| 20260509194505 | 54 | 67 | 1.7 | 0.0 | 0.00 | 0.00 | 0.00 | 73 | 1063.3 |
| 20260509194343 | 54 | 45 | 5.2 | 0.0 | 0.00 | 0.00 | 0.00 | 73 | 1063.3 |
| 20260509194231 | 54 | 67 | 0.9 | 0.0 | 0.00 | 0.00 | 0.00 | 73 | 1063.4 |
| 20260509194111 | 54 | 67 | 5.2 | 0.0 | 0.00 | 0.00 | 0.00 | 73 | 1063.2 |
| 20260509194005 | 54 | 67 | 1.7 | 0.0 | 0.00 | 0.00 | 0.00 | 72 | 1063.3 |
| 20260509193852 | 54 | 45 | 3.5 | 0.0 | 0.00 | 0.00 | 0.00 | 72 | 1063.3 |
| 20260509193732 | 54 | 45 | 3.5 | 0.0 | 0.00 | 0.00 | 0.00 | 72 | 1063.3 |
| 20260509193625 | 54 | 45 | 5.2 | 0.0 | 0.00 | 0.00 | 0.00 | 72 | 1063.2 |
| 20260509193503 | 54 | 45 | 4.3 | 0.0 | 0.00 | 0.00 | 0.00 | 72 | 1063.2 |
| 20260509193343 | 54 | 45 | 0.0 | 0.0 | 0.00 | 0.00 | 0.00 | 72 | 1063.2 |
| 20260509193223 | 54 | 45 | 4.3 | 0.0 | 0.00 | 0.00 | 0.00 | 72 | 1063.2 |
| 20260509193117 | 54 | 45 | 3.5 | 0.0 | 0.00 | 0.00 | 0.00 | 72 | 1063.2 |
| 20260509193003 | 54 | 45 | 2.6 | 0.0 | 0.00 | 0.00 | 0.00 | 71 | 1063.2 |
| 20260509192845 | 54 | 67 | 0.0 | 0.0 | 0.00 | 0.00 | 0.00 | 71 | 1063.2 |
| 20260509192737 | 54 | 90 | 2.6 | 0.0 | 0.00 | 0.00 | 0.00 | 71 | 1063.3 |
| 20260509192624 | 54 | 45 | 2.6 | 0.0 | 0.00 | 0.00 | 0.00 | 71 | 1063.3 |
| 20260509192519 | 54 | 45 | 4.3 | 0.0 | 0.00 | 0.00 | 0.00 | 71 | 1063.2 |
| 20260509192405 | 54 | 45 | 6.1 | 0.0 | 0.00 | 0.00 | 0.00 | 71 | 1063.2 |
| 20260509192255 | 55 | 90 | 5.2 | 0.0 | 0.00 | 0.00 | 0.00 | 71 | 1063.2 |
| 20260509192142 | 55 | 45 | 3.5 | 0.0 | 0.00 | 0.00 | 0.00 | 71 | 1063.2 |
| 20260509192034 | 55 | 45 | 0.9 | 0.0 | 0.00 | 0.00 | 0.00 | 71 | 1063.2 |
| 20260509191913 | 55 | 45 | 3.5 | 0.0 | 0.00 | 0.00 | 0.00 | 71 | 1063.2 |
| 20260509191752 | 55 | 45 | 6.1 | 0.0 | 0.00 | 0.00 | 0.00 | 71 | 1063.2 |
| 20260509191638 | 55 | 45 | 3.5 | 0.0 | 0.00 | 0.00 | 0.00 | 71 | 1063.2 |
| 20260509191518 | 55 | 22 | 4.3 | 0.0 | 0.00 | 0.00 | 0.00 | 71 | 1063.1 |
| 20260509191407 | 55 | 45 | 3.5 | 0.0 | 0.00 | 0.00 | 0.00 | 71 | 1063.2 |
| 20260509191300 | 55 | 67 | 7.8 | 0.0 | 0.00 | 0.00 | 0.00 | 71 | 1063.1 |
| 20260509191147 | 55 | 45 | 6.1 | 0.0 | 0.00 | 0.00 | 0.00 | 71 | 1063.1 |
| 20260509191042 | 55 | 45 | 7.0 | 0.0 | 0.00 | 0.00 | 0.00 | 71 | 1063.1 |
| 20260509190930 | 55 | 22 | 2.6 | 0.0 | 0.00 | 0.00 | 0.00 | 71 | 1063.0 |
| 20260509190823 | 55 | 45 | 6.1 | 0.0 | 0.00 | 0.00 | 0.00 | 70 | 1063.1 |
| 20260509190713 | 55 | 22 | 1.7 | 0.0 | 0.00 | 0.00 | 0.00 | 70 | 1063.1 |
| 20260509190605 | 55 | 22 | 3.5 | 0.0 | 0.00 | 0.00 | 0.00 | 70 | 1063.0 |
| 20260509190445 | 55 | 45 | 4.3 | 0.0 | 0.00 | 0.00 | 0.00 | 70 | 1063.1 |
| 20260509190333 | 55 | 22 | 3.5 | 0.0 | 0.00 | 0.00 | 0.00 | 70 | 1063.0 |
| 20260509190226 | 55 | 22 | 0.9 | 0.0 | 0.00 | 0.00 | 0.00 | 69 | 1063.0 |
| 20260509190105 | 55 | 45 | 2.6 | 0.0 | 0.00 | 0.00 | 0.00 | 69 | 1063.0 |
| 20260509185952 | 55 | 67 | 5.2 | 0.0 | 0.00 | 0.00 | 0.00 | 69 | 1063.0 |
| 20260509185846 | 55 | 45 | 5.2 | 0.0 | 0.00 | 0.00 | 0.00 | 69 | 1063.0 |
| 20260509185725 | 55 | 112 | 0.0 | 0.0 | 0.00 | 0.00 | 0.00 | 69 | 1062.9 |
| 20260509185613 | 55 | 90 | 6.1 | 0.0 | 0.00 | 0.00 | 0.00 | 69 | 1063.0 |
| 20260509185506 | 55 | 22 | 5.2 | 0.0 | 0.00 | 0.00 | 0.00 | 69 | 1063.0 |
| 20260509185355 | 55 | 67 | 2.6 | 0.0 | 0.00 | 0.00 | 0.00 | 69 | 1063.0 |
| 20260509185249 | 55 | 67 | 1.7 | 0.0 | 0.00 | 0.00 | 0.00 | 69 | 1062.9 |
| 20260509185144 | 55 | 45 | 1.7 | 0.0 | 0.00 | 0.00 | 0.00 | 69 | 1062.9 |
| 20260509185031 | 55 | 45 | 0.0 | 0.0 | 0.00 | 0.00 | 0.00 | 69 | 1062.9 |
| 20260509184909 | 55 | 45 | 1.7 | 0.0 | 0.00 | 0.00 | 0.00 | 69 | 1062.9 |
| 20260509184748 | 55 | 45 | 3.5 | 0.0 | 0.00 | 0.00 | 0.00 | 69 | 1062.9 |
| 20260509184627 | 55 | 45 | 4.3 | 0.0 | 0.00 | 0.00 | 0.00 | 69 | 1063.0 |
| 20260509184514 | 55 | 45 | 4.3 | 0.0 | 0.00 | 0.00 | 0.00 | 69 | 1062.9 |
| 20260509184401 | 55 | 45 | 5.2 | 0.0 | 0.00 | 0.00 | 0.00 | 69 | 1062.9 |
| 20260509184258 | 55 | 45 | 5.2 | 0.0 | 0.00 | 0.00 | 0.00 | 69 | 1063.0 |
| 20260509184150 | 55 | 22 | 5.2 | 0.0 | 0.00 | 0.00 | 0.00 | 68 | 1063.1 |
| 20260509184029 | 55 | 45 | 5.2 | 0.0 | 0.00 | 0.00 | 0.00 | 68 | 1063.0 |
| 20260509183916 | 56 | 45 | 0.0 | 0.0 | 0.00 | 0.00 | 0.00 | 68 | 1062.9 |
| 20260509183757 | 56 | 90 | 4.3 | 0.0 | 0.00 | 0.00 | 0.00 | 68 | 1063.0 |
| 20260509183651 | 56 | 45 | 5.2 | 0.0 | 0.00 | 0.00 | 0.00 | 68 | 1062.9 |
| 20260509183537 | 56 | 45 | 6.1 | 0.0 | 0.00 | 0.00 | 0.00 | 68 | 1062.8 |
| 20260509183424 | 56 | 45 | 6.1 | 0.0 | 0.00 | 0.00 | 0.00 | 67 | 1062.9 |
| 20260509183310 | 56 | 45 | 1.7 | 0.0 | 0.00 | 0.00 | 0.00 | 67 | 1062.8 |
| 20260509183150 | 56 | 67 | 4.3 | 0.0 | 0.00 | 0.00 | 0.00 | 67 | 1062.8 |
| 20260509183037 | 56 | 67 | 0.0 | 0.0 | 0.00 | 0.00 | 0.00 | 67 | 1062.9 |
| 20260509182932 | 56 | 45 | 8.7 | 0.0 | 0.00 | 0.00 | 0.00 | 67 | 1062.8 |
| 20260509182821 | 56 | 45 | 1.7 | 0.0 | 0.00 | 0.00 | 0.00 | 66 | 1062.9 |
| 20260509182713 | 56 | 45 | 4.3 | 0.0 | 0.00 | 0.00 | 0.00 | 66 | 1062.9 |
| 20260509182555 | 56 | 22 | 4.3 | 0.0 | 0.00 | 0.00 | 0.00 | 66 | 1062.9 |
| 20260509182448 | 56 | 45 | 2.6 | 0.0 | 0.00 | 0.00 | 0.00 | 66 | 1062.8 |
| 20260509182345 | 56 | 67 | 5.2 | 0.0 | 0.00 | 0.00 | 0.00 | 66 | 1062.9 |
| 20260509182237 | 57 | 67 | 0.0 | 0.0 | 0.00 | 0.00 | 0.00 | 66 | 1062.9 |
| 20260509182124 | 57 | 67 | 0.9 | 0.0 | 0.00 | 0.00 | 0.00 | 65 | 1062.9 |
| 20260509182018 | 57 | 67 | 4.3 | 0.0 | 0.00 | 0.00 | 0.00 | 65 | 1062.8 |
| 20260509181906 | 57 | 90 | 1.7 | 0.0 | 0.00 | 0.00 | 0.00 | 65 | 1062.9 |
| 20260509181753 | 57 | 112 | 1.7 | 0.0 | 0.00 | 0.00 | 0.00 | 65 | 1062.8 |
| 20260509181640 | 57 | 45 | 5.2 | 0.0 | 0.00 | 0.00 | 0.00 | 64 | 1063.0 |
| 20260509181537 | 57 | 67 | 7.0 | 0.0 | 0.00 | 0.00 | 0.00 | 64 | 1062.9 |
| 20260509181431 | 57 | 45 | 0.0 | 0.0 | 0.00 | 0.00 | 0.00 | 64 | 1063.0 |
| 20260509181324 | 57 | 67 | 4.3 | 0.0 | 0.00 | 0.00 | 0.00 | 64 | 1062.9 |
| 20260509181210 | 57 | 90 | 2.6 | 0.0 | 0.00 | 0.00 | 0.00 | 63 | 1062.9 |
| 20260509181105 | 57 | 45 | 1.7 | 0.0 | 0.00 | 0.00 | 0.00 | 64 | 1062.9 |
| 20260509180959 | 57 | 90 | 4.3 | 0.0 | 0.00 | 0.00 | 0.00 | 63 | 1062.8 |
| 20260509180853 | 57 | 45 | 2.6 | 0.0 | 0.00 | 0.00 | 0.00 | 63 | 1062.9 |
| 20260509180747 | 57 | 67 | 5.2 | 0.0 | 0.00 | 0.00 | 0.00 | 63 | 1062.9 |
| 20260509180634 | 57 | 67 | 2.6 | 0.0 | 0.00 | 0.00 | 0.00 | 63 | 1062.9 |
| 20260509180521 | 57 | 45 | 5.2 | 0.0 | 0.00 | 0.00 | 0.00 | 63 | 1062.9 |
| 20260509180408 | 57 | 67 | 5.2 | 0.0 | 0.00 | 0.00 | 0.00 | 63 | 1062.8 |
| 20260509180255 | 57 | 90 | 7.0 | 0.0 | 0.00 | 0.00 | 0.00 | 63 | 1062.8 |
| 20260509180143 | 57 | 45 | 2.6 | 0.0 | 0.00 | 0.00 | 0.00 | 63 | 1062.8 |
| 20260509180035 | 57 | 112 | 7.0 | 0.0 | 0.00 | 0.00 | 0.00 | 63 | 1062.8 |
| 20260509175922 | 57 | 90 | 7.8 | 0.0 | 0.00 | 0.00 | 0.00 | 63 | 1062.8 |
| 20260509175811 | 57 | 90 | 5.2 | 0.0 | 0.00 | 0.00 | 0.00 | 63 | 1062.8 |
| 20260509175706 | 57 | 22 | 6.1 | 0.0 | 0.00 | 0.00 | 0.00 | 63 | 1062.8 |
| 20260509175559 | 57 | 90 | 6.1 | 0.0 | 0.00 | 0.00 | 0.00 | 63 | 1062.8 |
| 20260509175438 | 57 | 112 | 4.3 | 0.0 | 0.00 | 0.00 | 0.00 | 62 | 1062.9 |
| 20260509175316 | 57 | 112 | 6.1 | 0.0 | 0.00 | 0.00 | 0.00 | 62 | 1062.8 |
| 20260509175204 | 57 | 67 | 6.1 | 0.0 | 0.00 | 0.00 | 0.00 | 62 | 1062.8 |
| 20260509175050 | 57 | 90 | 2.6 | 0.0 | 0.00 | 0.00 | 0.00 | 62 | 1062.8 |
| 20260509174922 | 58 | 67 | 7.8 | 0.0 | 0.00 | 0.00 | 0.00 | 62 | 1062.8 |
| 20260509174808 | 58 | 67 | 2.6 | 0.0 | 0.00 | 0.00 | 0.00 | 62 | 1062.8 |
| 20260509174646 | 58 | 45 | 2.6 | 0.0 | 0.00 | 0.00 | 0.00 | 61 | 1062.8 |
| 20260509174524 | 58 | 112 | 7.0 | 0.0 | 0.00 | 0.00 | 0.00 | 61 | 1062.8 |
| 20260509174404 | 58 | 90 | 8.7 | 0.0 | 0.00 | 0.00 | 0.00 | 61 | 1062.7 |
| 20260509174251 | 58 | 90 | 5.2 | 0.0 | 0.00 | 0.00 | 0.00 | 61 | 1062.7 |
| 20260509174129 | 58 | 90 | 6.1 | 0.0 | 0.00 | 0.00 | 0.00 | 61 | 1062.7 |
| 20260509174017 | 58 | 22 | 5.2 | 0.0 | 0.00 | 0.00 | 0.00 | 60 | 1062.7 |
| 20260509173903 | 58 | 90 | 7.8 | 0.0 | 0.00 | 0.00 | 0.00 | 60 | 1062.6 |
| 20260509173750 | 58 | 90 | 7.0 | 0.0 | 0.00 | 0.00 | 0.00 | 60 | 1062.8 |
| 20260509173630 | 59 | 90 | 6.1 | 0.0 | 0.00 | 0.00 | 0.00 | 60 | 1062.7 |
| 20260509173525 | 59 | 67 | 6.1 | 0.0 | 0.00 | 0.00 | 0.00 | 60 | 1062.7 |
| 20260509173412 | 59 | 67 | 2.6 | 0.0 | 0.00 | 0.00 | 0.00 | 59 | 1062.7 |
| 20260509173258 | 59 | 67 | 5.2 | 0.0 | 0.00 | 0.00 | 0.00 | 59 | 1062.7 |
| 20260509173139 | 59 | 45 | 2.6 | 0.0 | 0.00 | 0.00 | 0.00 | 58 | 1062.7 |
| 20260509173034 | 59 | 67 | 5.2 | 0.0 | 0.00 | 0.00 | 0.00 | 59 | 1062.7 |
| 20260509172929 | 60 | 90 | 3.5 | 0.0 | 0.00 | 0.00 | 0.00 | 58 | 1062.7 |
| 20260509172822 | 60 | 45 | 3.5 | 0.0 | 0.00 | 0.00 | 0.00 | 58 | 1062.6 |
| 20260509172656 | 60 | 67 | 2.6 | 0.0 | 0.00 | 0.00 | 0.00 | 58 | 1062.6 |
| 20260509172548 | 60 | 90 | 10.4 | 0.0 | 0.00 | 0.00 | 0.00 | 58 | 1062.6 |
| 20260509172435 | 60 | 112 | 13.9 | 0.0 | 0.00 | 0.00 | 0.00 | 58 | 1062.6 |
| 20260509172322 | 60 | 90 | 10.4 | 0.0 | 0.00 | 0.00 | 0.00 | 57 | 1062.7 |
| 20260509172216 | 60 | 45 | 7.0 | 0.0 | 0.00 | 0.00 | 0.00 | 57 | 1062.7 |
| 20260509172057 | 60 | 90 | 2.6 | 0.0 | 0.00 | 0.00 | 0.00 | 57 | 1062.7 |
| 20260509171953 | 60 | 45 | 6.1 | 0.0 | 0.00 | 0.00 | 0.00 | 57 | 1062.6 |
| 20260509171844 | 60 | 67 | 6.1 | 0.0 | 0.00 | 0.00 | 0.00 | 57 | 1062.7 |
| 20260509171725 | 60 | 67 | 7.0 | 0.0 | 0.00 | 0.00 | 0.00 | 58 | 1062.7 |
| 20260509171619 | 60 | 67 | 5.2 | 0.0 | 0.00 | 0.00 | 0.00 | 58 | 1062.7 |
| 20260509171514 | 59 | 90 | 4.3 | 0.0 | 0.00 | 0.00 | 0.00 | 58 | 1062.7 |
| 20260509171400 | 59 | 112 | 5.2 | 0.0 | 0.00 | 0.00 | 0.00 | 58 | 1062.7 |
| 20260509171246 | 59 | 112 | 6.1 | 0.0 | 0.00 | 0.00 | 0.00 | 58 | 1062.7 |
| 20260509171134 | 59 | 67 | 9.6 | 0.0 | 0.00 | 0.00 | 0.00 | 58 | 1062.7 |
| 20260509171027 | 59 | 90 | 2.6 | 0.0 | 0.00 | 0.00 | 0.00 | 58 | 1062.6 |
| 20260509170912 | 59 | 45 | 7.8 | 0.0 | 0.00 | 0.00 | 0.00 | 58 | 1062.6 |
| 20260509170752 | 59 | 45 | 3.5 | 0.0 | 0.00 | 0.00 | 0.00 | 58 | 1062.6 |
| 20260509170623 | 59 | 67 | 5.2 | 0.0 | 0.00 | 0.00 | 0.00 | 58 | 1062.6 |
| 20260509170509 | 59 | 67 | 3.5 | 0.0 | 0.00 | 0.00 | 0.00 | 57 | 1062.6 |
| 20260509170349 | 59 | 90 | 6.1 | 0.0 | 0.00 | 0.00 | 0.00 | 58 | 1062.6 |
| 20260509170235 | 59 | 67 | 4.3 | 0.0 | 0.00 | 0.00 | 0.00 | 57 | 1062.6 |
| 20260509170114 | 59 | 22 | 6.1 | 0.0 | 0.00 | 0.00 | 0.00 | 57 | 1062.6 |
| 20260509165953 | 59 | 90 | 7.0 | 0.0 | 0.00 | 0.00 | 0.00 | 57 | 1062.7 |
| 20260509165841 | 59 | 45 | 7.0 | 0.0 | 0.00 | 0.00 | 0.00 | 57 | 1062.7 |
| 20260509165727 | 59 | 112 | 6.1 | 0.0 | 0.00 | 0.00 | 0.00 | 57 | 1062.7 |
| 20260509165615 | 59 | 45 | 4.3 | 0.0 | 0.00 | 0.00 | 0.00 | 57 | 1062.7 |
| 20260509165510 | 59 | 45 | 4.3 | 0.0 | 0.00 | 0.00 | 0.00 | 57 | 1062.7 |
| 20260509165403 | 59 | 22 | 7.0 | 0.0 | 0.00 | 0.00 | 0.00 | 57 | 1062.7 |
| 20260509165243 | 59 | 45 | 4.3 | 0.0 | 0.00 | 0.00 | 0.00 | 57 | 1062.7 |
| 20260509165130 | 59 | 45 | 2.6 | 0.0 | 0.00 | 0.00 | 0.00 | 56 | 1062.6 |
| 20260509165017 | 59 | 67 | 5.2 | 0.0 | 0.00 | 0.00 | 0.00 | 56 | 1062.6 |
| 20260509164912 | 59 | 45 | 6.1 | 0.0 | 0.00 | 0.00 | 0.00 | 56 | 1062.6 |
| 20260509164752 | 59 | 90 | 7.8 | 0.0 | 0.00 | 0.00 | 0.00 | 56 | 1062.8 |
| 20260509164637 | 59 | 67 | 12.2 | 0.0 | 0.00 | 0.00 | 0.00 | 56 | 1062.8 |
| 20260509164524 | 59 | 45 | 3.5 | 0.0 | 0.00 | 0.00 | 0.00 | 55 | 1062.8 |
| 20260509164419 | 59 | 45 | 8.7 | 0.0 | 0.00 | 0.00 | 0.00 | 56 | 1062.8 |
| 20260509164258 | 59 | 90 | 5.2 | 0.0 | 0.00 | 0.00 | 0.00 | 56 | 1062.8 |
| 20260509164145 | 59 | 90 | 8.7 | 0.0 | 0.00 | 0.00 | 0.00 | 55 | 1062.9 |
| 20260509164032 | 59 | 90 | 8.7 | 0.0 | 0.00 | 0.00 | 0.00 | 55 | 1062.9 |
| 20260509163926 | 60 | 90 | 7.8 | 0.0 | 0.00 | 0.00 | 0.00 | 54 | 1062.9 |
| 20260509163814 | 60 | 90 | 10.4 | 0.0 | 0.00 | 0.00 | 0.00 | 54 | 1062.8 |
| 20260509163652 | 60 | 90 | 6.1 | 0.0 | 0.00 | 0.00 | 0.00 | 53 | 1062.8 |
| 20260509163539 | 60 | 90 | 11.3 | 0.0 | 0.00 | 0.00 | 0.00 | 53 | 1062.7 |
| 20260509163412 | 60 | 67 | 7.8 | 0.0 | 0.00 | 0.00 | 0.00 | 53 | 1062.7 |
| 20260509163305 | 60 | 90 | 8.7 | 0.0 | 0.00 | 0.00 | 0.00 | 53 | 1062.7 |
| 20260509163200 | 60 | 67 | 5.2 | 0.0 | 0.00 | 0.00 | 0.00 | 53 | 1062.7 |
| 20260509163047 | 60 | 22 | 3.5 | 0.0 | 0.00 | 0.00 | 0.00 | 53 | 1062.7 |
| 20260509162942 | 60 | 112 | 7.0 | 0.0 | 0.00 | 0.00 | 0.00 | 53 | 1062.8 |
| 20260509162829 | 60 | 67 | 3.5 | 0.0 | 0.00 | 0.00 | 0.00 | 54 | 1062.8 |
| 20260509162724 | 60 | 67 | 3.5 | 0.0 | 0.00 | 0.00 | 0.00 | 54 | 1062.8 |
| 20260509162610 | 60 | 67 | 7.8 | 0.0 | 0.00 | 0.00 | 0.00 | 54 | 1062.8 |
| 20260509162449 | 60 | 67 | 1.7 | 0.0 | 0.00 | 0.00 | 0.00 | 54 | 1062.9 |
| 20260509162344 | 60 | 112 | 9.6 | 0.0 | 0.00 | 0.00 | 0.00 | 54 | 1062.9 |
| 20260509162233 | 60 | 112 | 8.7 | 0.0 | 0.00 | 0.00 | 0.00 | 54 | 1062.9 |
| 20260509162126 | 60 | 90 | 7.0 | 0.0 | 0.00 | 0.00 | 0.00 | 55 | 1063.0 |
| 20260509162004 | 60 | 90 | 6.1 | 0.0 | 0.00 | 0.00 | 0.00 | 55 | 1062.9 |
| 20260509161843 | 60 | 112 | 7.0 | 0.0 | 0.00 | 0.00 | 0.00 | 56 | 1063.0 |
| 20260509161725 | 60 | 67 | 3.5 | 0.0 | 0.00 | 0.00 | 0.00 | 56 | 1062.9 |
| 20260509161603 | 60 | 90 | 2.6 | 0.0 | 0.00 | 0.00 | 0.00 | 56 | 1063.0 |
| 20260509161433 | 60 | 90 | 6.1 | 0.0 | 0.00 | 0.00 | 0.00 | 55 | 1063.1 |
| 20260509161305 | 60 | 67 | 3.5 | 0.0 | 0.00 | 0.00 | 0.00 | 55 | 1063.1 |
| 20260509161149 | 60 | 45 | 7.0 | 0.0 | 0.00 | 0.00 | 0.00 | 54 | 1063.0 |
| 20260509161044 | 60 | 67 | 9.6 | 0.0 | 0.00 | 0.00 | 0.00 | 55 | 1063.1 |
| 20260509160915 | 60 | 112 | 5.2 | 0.0 | 0.00 | 0.00 | 0.00 | 55 | 1063.0 |
| 20260509160753 | 60 | 67 | 11.3 | 0.0 | 0.00 | 0.00 | 0.00 | 55 | 1063.0 |
| 20260509160641 | 60 | 90 | 6.1 | 0.0 | 0.00 | 0.00 | 0.00 | 55 | 1063.0 |
| 20260509160528 | 60 | 67 | 7.8 | 0.0 | 0.00 | 0.00 | 0.00 | 56 | 1063.1 |
| 20260509160414 | 60 | 67 | 7.8 | 0.0 | 0.00 | 0.00 | 0.00 | 56 | 1063.1 |
| 20260509160247 | 60 | 45 | 9.6 | 0.0 | 0.00 | 0.00 | 0.00 | 56 | 1063.1 |
| 20260509160139 | 60 | 112 | 7.8 | 0.0 | 0.00 | 0.00 | 0.00 | 57 | 1063.1 |
| 20260509160027 | 60 | 67 | 7.8 | 0.0 | 0.00 | 0.00 | 0.00 | 57 | 1063.1 |
| 20260509155921 | 60 | 67 | 5.2 | 0.0 | 0.00 | 0.00 | 0.00 | 57 | 1063.1 |
| 20260509155815 | 60 | 22 | 2.6 | 0.0 | 0.00 | 0.00 | 0.00 | 57 | 1063.2 |
| 20260509155701 | 60 | 112 | 3.5 | 0.0 | 0.00 | 0.00 | 0.00 | 57 | 1063.2 |
| 20260509155540 | 60 | 112 | 5.2 | 0.0 | 0.00 | 0.00 | 0.00 | 57 | 1063.2 |
| 20260509155434 | 60 | 112 | 4.3 | 0.0 | 0.00 | 0.00 | 0.00 | 57 | 1063.1 |
| 20260509155313 | 60 | 45 | 7.0 | 0.0 | 0.00 | 0.00 | 0.00 | 57 | 1062.9 |
| 20260509155152 | 60 | 90 | 5.2 | 0.0 | 0.00 | 0.00 | 0.00 | 57 | 1063.2 |
| 20260509155038 | 60 | 45 | 8.7 | 0.0 | 0.00 | 0.00 | 0.00 | 57 | 1063.2 |
| 20260509154911 | 60 | 45 | 6.1 | 0.0 | 0.00 | 0.00 | 0.00 | 56 | 1063.2 |
| 20260509154806 | 60 | 22 | 6.1 | 0.0 | 0.00 | 0.00 | 0.00 | 56 | 1063.2 |
| 20260509154701 | 60 | 67 | 8.7 | 0.0 | 0.00 | 0.00 | 0.00 | 56 | 1063.2 |
| 20260509154555 | 61 | 67 | 9.6 | 0.0 | 0.00 | 0.00 | 0.00 | 56 | 1063.2 |
| 20260509154441 | 61 | 22 | 7.0 | 0.0 | 0.00 | 0.00 | 0.00 | 57 | 1063.2 |
| 20260509154321 | 61 | 67 | 6.1 | 0.0 | 0.00 | 0.00 | 0.00 | 56 | 1063.3 |
| 20260509154215 | 61 | 45 | 12.2 | 0.0 | 0.00 | 0.00 | 0.00 | 57 | 1063.3 |
| 20260509154104 | 61 | 22 | 3.5 | 0.0 | 0.00 | 0.00 | 0.00 | 56 | 1063.3 |
| 20260509153957 | 62 | 90 | 6.1 | 0.0 | 0.00 | 0.00 | 0.00 | 56 | 1063.3 |
| 20260509153835 | 62 | 45 | 5.2 | 0.0 | 0.00 | 0.00 | 0.00 | 56 | 1063.2 |
| 20260509153715 | 62 | 22 | 9.6 | 0.0 | 0.00 | 0.00 | 0.00 | 57 | 1063.2 |
| 20260509153545 | 62 | 45 | 5.2 | 0.0 | 0.00 | 0.00 | 0.00 | 57 | 1063.3 |
| 20260509153425 | 62 | 45 | 7.0 | 0.0 | 0.00 | 0.00 | 0.00 | 58 | 1063.2 |
| 20260509153256 | 61 | 45 | 2.6 | 0.0 | 0.00 | 0.00 | 0.00 | 58 | 1063.3 |
| 20260509153127 | 61 | 45 | 4.3 | 0.0 | 0.00 | 0.00 | 0.00 | 58 | 1063.3 |
| 20260509153014 | 61 | 90 | 4.3 | 0.0 | 0.00 | 0.00 | 0.00 | 58 | 1063.4 |
| 20260509152850 | 61 | 45 | 0.0 | 0.0 | 0.00 | 0.00 | 0.00 | 58 | 1063.4 |
| 20260509152729 | 61 | 45 | 8.7 | 0.0 | 0.00 | 0.00 | 0.00 | 58 | 1063.4 |
| 20260509152616 | 61 | 67 | 6.1 | 0.0 | 0.00 | 0.00 | 0.00 | 58 | 1063.4 |
| 20260509152455 | 61 | 45 | 3.5 | 0.0 | 0.00 | 0.00 | 0.00 | 58 | 1063.4 |
| 20260509152342 | 61 | 45 | 6.1 | 0.0 | 0.00 | 0.00 | 0.00 | 58 | 1063.4 |
| 20260509152239 | 61 | 67 | 7.0 | 0.0 | 0.00 | 0.00 | 0.00 | 57 | 1063.4 |
| 20260509152132 | 61 | 67 | 5.2 | 0.0 | 0.00 | 0.00 | 0.00 | 57 | 1063.4 |
| 20260509152019 | 61 | 22 | 7.8 | 0.0 | 0.00 | 0.00 | 0.00 | 57 | 1063.4 |
| 20260509151857 | 61 | 45 | 6.1 | 0.0 | 0.00 | 0.00 | 0.00 | 56 | 1063.3 |
| 20260509151746 | 62 | 90 | 9.6 | 0.0 | 0.00 | 0.00 | 0.00 | 56 | 1063.3 |
| 20260509151639 | 62 | 67 | 10.4 | 0.0 | 0.00 | 0.00 | 0.00 | 56 | 1063.3 |
| 20260509151526 | 62 | 22 | 6.1 | 0.0 | 0.00 | 0.00 | 0.00 | 55 | 1063.4 |
| 20260509151421 | 62 | 90 | 4.3 | 0.0 | 0.00 | 0.00 | 0.00 | 55 | 1063.4 |
| 20260509151302 | 62 | 112 | 11.3 | 0.0 | 0.00 | 0.00 | 0.00 | 55 | 1063.4 |
| 20260509151147 | 62 | 112 | 7.8 | 0.0 | 0.00 | 0.00 | 0.00 | 55 | 1063.4 |
| 20260509151025 | 62 | 90 | 8.7 | 0.0 | 0.00 | 0.00 | 0.00 | 55 | 1063.5 |
| 20260509150905 | 62 | 22 | 3.5 | 0.0 | 0.00 | 0.00 | 0.00 | 56 | 1063.5 |
| 20260509150800 | 63 | 90 | 5.2 | 0.0 | 0.00 | 0.00 | 0.00 | 55 | 1063.5 |
| 20260509150647 | 63 | 67 | 8.7 | 0.0 | 0.00 | 0.00 | 0.00 | 55 | 1063.6 |
| 20260509150535 | 63 | 112 | 7.8 | 0.0 | 0.00 | 0.00 | 0.00 | 55 | 1063.6 |
| 20260509150422 | 63 | 67 | 9.6 | 0.0 | 0.00 | 0.00 | 0.00 | 56 | 1063.6 |
| 20260509150307 | 63 | 112 | 4.3 | 0.0 | 0.00 | 0.00 | 0.00 | 56 | 1063.6 |
| 20260509150153 | 63 | 45 | 8.7 | 0.0 | 0.00 | 0.00 | 0.00 | 57 | 1063.7 |
| 20260509150032 | 63 | 67 | 3.5 | 0.0 | 0.00 | 0.00 | 0.00 | 57 | 1063.7 |
| 20260509145927 | 63 | 0 | 6.1 | 0.0 | 0.00 | 0.00 | 0.00 | 57 | 1063.7 |
| 20260509145813 | 62 | 112 | 10.4 | 0.0 | 0.00 | 0.00 | 0.00 | 57 | 1063.7 |
| 20260509145700 | 62 | 315 | 5.2 | 0.0 | 0.00 | 0.00 | 0.00 | 57 | 1063.5 |
| 20260509145538 | 62 | 45 | 4.3 | 0.0 | 0.00 | 0.00 | 0.00 | 58 | 1063.7 |
| 20260509145418 | 62 | 45 | 4.3 | 0.0 | 0.00 | 0.00 | 0.00 | 58 | 1063.7 |
| 20260509145306 | 62 | 45 | 3.5 | 0.0 | 0.00 | 0.00 | 0.00 | 57 | 1063.7 |
| 20260509145143 | 62 | 90 | 7.0 | 0.0 | 0.00 | 0.00 | 0.00 | 57 | 1063.7 |
| 20260509145032 | 62 | 22 | 3.5 | 0.0 | 0.00 | 0.00 | 0.00 | 57 | 1063.7 |
| 20260509144925 | 62 | 45 | 6.1 | 0.0 | 0.00 | 0.00 | 0.00 | 58 | 1063.8 |
| 20260509144820 | 62 | 112 | 5.2 | 0.0 | 0.00 | 0.00 | 0.00 | 58 | 1063.7 |
| 20260509144716 | 62 | 112 | 8.7 | 0.0 | 0.00 | 0.00 | 0.00 | 58 | 1063.7 |
| 20260509144601 | 62 | 45 | 4.3 | 0.0 | 0.00 | 0.00 | 0.00 | 58 | 1063.8 |
| 20260509144449 | 61 | 67 | 1.7 | 0.0 | 0.00 | 0.00 | 0.00 | 58 | 1063.7 |
| 20260509144336 | 61 | 90 | 5.2 | 0.0 | 0.00 | 0.00 | 0.00 | 58 | 1063.8 |
| 20260509144223 | 61 | 112 | 3.5 | 0.0 | 0.00 | 0.00 | 0.00 | 58 | 1063.7 |
| 20260509144111 | 61 | 67 | 9.6 | 0.0 | 0.00 | 0.00 | 0.00 | 59 | 1063.8 |
| 20260509143956 | 61 | 90 | 5.2 | 0.0 | 0.00 | 0.00 | 0.00 | 59 | 1063.8 |
| 20260509143834 | 61 | 90 | 3.5 | 0.0 | 0.00 | 0.00 | 0.00 | 59 | 1063.8 |
| 20260509143716 | 61 | 45 | 8.7 | 0.0 | 0.00 | 0.00 | 0.00 | 59 | 1063.8 |
| 20260509143609 | 61 | 0 | 2.6 | 0.0 | 0.00 | 0.00 | 0.00 | 59 | 1063.8 |
| 20260509143504 | 61 | 90 | 6.1 | 0.0 | 0.00 | 0.00 | 0.00 | 59 | 1063.8 |
| 20260509143351 | 60 | 67 | 5.2 | 0.0 | 0.00 | 0.00 | 0.00 | 59 | 1063.8 |
| 20260509143238 | 60 | 45 | 8.7 | 0.0 | 0.00 | 0.00 | 0.00 | 59 | 1063.9 |
| 20260509143133 | 60 | 22 | 6.1 | 0.0 | 0.00 | 0.00 | 0.00 | 59 | 1063.9 |
| 20260509143028 | 60 | 45 | 3.5 | 0.0 | 0.00 | 0.00 | 0.00 | 59 | 1063.9 |
| 20260509142922 | 61 | 90 | 3.5 | 0.0 | 0.00 | 0.00 | 0.00 | 58 | 1063.9 |
| 20260509142809 | 61 | 22 | 9.6 | 0.0 | 0.00 | 0.00 | 0.00 | 58 | 1063.9 |
| 20260509142706 | 61 | 67 | 2.6 | 0.0 | 0.00 | 0.00 | 0.00 | 58 | 1064.0 |
| 20260509142558 | 61 | 45 | 9.6 | 0.0 | 0.00 | 0.00 | 0.00 | 57 | 1064.0 |
| 20260509142439 | 61 | 45 | 9.6 | 0.0 | 0.00 | 0.00 | 0.00 | 57 | 1064.0 |
| 20260509142333 | 61 | 112 | 7.0 | 0.0 | 0.00 | 0.00 | 0.00 | 57 | 1064.0 |
| 20260509142227 | 61 | 90 | 4.3 | 0.0 | 0.00 | 0.00 | 0.00 | 56 | 1064.1 |
| 20260509142114 | 61 | 67 | 3.5 | 0.0 | 0.00 | 0.00 | 0.00 | 56 | 1064.1 |
| 20260509142009 | 61 | 90 | 6.1 | 0.0 | 0.00 | 0.00 | 0.00 | 56 | 1064.0 |
| 20260509141854 | 62 | 90 | 5.2 | 0.0 | 0.00 | 0.00 | 0.00 | 56 | 1064.0 |
| 20260509141746 | 62 | 90 | 0.9 | 0.0 | 0.00 | 0.00 | 0.00 | 56 | 1064.0 |
| 20260509141638 | 62 | 90 | 6.1 | 0.0 | 0.00 | 0.00 | 0.00 | 55 | 1064.1 |
| 20260509141525 | 62 | 90 | 3.5 | 0.0 | 0.00 | 0.00 | 0.00 | 55 | 1064.1 |
| 20260509141420 | 62 | 67 | 3.5 | 0.0 | 0.00 | 0.00 | 0.00 | 54 | 1064.0 |
| 20260509141307 | 62 | 22 | 5.2 | 0.0 | 0.00 | 0.00 | 0.00 | 53 | 1064.0 |
| 20260509141202 | 62 | 45 | 3.5 | 0.0 | 0.00 | 0.00 | 0.00 | 51 | 1064.0 |
| 20260509141049 | 62 | 90 | 3.5 | 0.0 | 0.00 | 0.00 | 0.00 | 51 | 1064.0 |
| 20260509140938 | 62 | 135 | 1.7 | 0.0 | 0.00 | 0.00 | 0.00 | 51 | 1064.1 |
| 20260509140832 | 62 | 112 | 3.5 | 0.0 | 0.00 | 0.00 | 0.00 | 51 | 1064.1 |
| 20260509140727 | 62 | 135 | 5.2 | 0.0 | 0.00 | 0.00 | 0.00 | 51 | 1064.0 |
| 20260509140620 | 62 | 112 | 6.1 | 0.0 | 0.00 | 0.00 | 0.00 | 50 | 1064.0 |
| 20260509140500 | 62 | 135 | 5.2 | 0.0 | 0.00 | 0.00 | 0.00 | 50 | 1064.0 |
| 20260509140355 | 62 | 112 | 5.2 | 0.0 | 0.00 | 0.00 | 0.00 | 51 | 1064.1 |
| 20260509140235 | 62 | 112 | 4.3 | 0.0 | 0.00 | 0.00 | 0.00 | 51 | 1064.1 |
| 20260509140121 | 62 | 90 | 5.2 | 0.0 | 0.00 | 0.00 | 0.00 | 51 | 1064.1 |
| 20260509140009 | 62 | 112 | 5.2 | 0.0 | 0.00 | 0.00 | 0.00 | 51 | 1064.1 |
| 20260509135858 | 62 | 112 | 2.6 | 0.0 | 0.00 | 0.00 | 0.00 | 51 | 1064.1 |
| 20260509135752 | 62 | 135 | 0.9 | 0.0 | 0.00 | 0.00 | 0.00 | 50 | 1064.0 |
| 20260509135630 | 62 | 112 | 6.1 | 0.0 | 0.00 | 0.00 | 0.00 | 50 | 1064.0 |
| 20260509135510 | 62 | 112 | 2.6 | 0.0 | 0.00 | 0.00 | 0.00 | 50 | 1064.1 |
| 20260509135404 | 62 | 112 | 7.0 | 0.0 | 0.00 | 0.00 | 0.00 | 50 | 1064.0 |
| 20260509135250 | 63 | 112 | 3.5 | 0.0 | 0.00 | 0.00 | 0.00 | 49 | 1064.0 |
| 20260509135121 | 63 | 135 | 5.2 | 0.0 | 0.00 | 0.00 | 0.00 | 49 | 1064.0 |
| 20260509135008 | 63 | 157 | 8.7 | 0.0 | 0.00 | 0.00 | 0.00 | 49 | 1064.1 |
| 20260509134857 | 63 | 157 | 5.2 | 0.0 | 0.00 | 0.00 | 0.00 | 49 | 1064.0 |
| 20260509134751 | 63 | 157 | 5.2 | 0.0 | 0.00 | 0.00 | 0.00 | 48 | 1064.1 |
| 20260509134645 | 64 | 112 | 5.2 | 0.0 | 0.00 | 0.00 | 0.00 | 48 | 1064.1 |
| 20260509134532 | 64 | 180 | 5.2 | 0.0 | 0.00 | 0.00 | 0.00 | 48 | 1064.1 |
| 20260509134427 | 64 | 135 | 4.3 | 0.0 | 0.00 | 0.00 | 0.00 | 48 | 1064.2 |
| 20260509134313 | 64 | 112 | 6.1 | 0.0 | 0.00 | 0.00 | 0.00 | 48 | 1064.2 |
| 20260509134159 | 64 | 157 | 3.5 | 0.0 | 0.00 | 0.00 | 0.00 | 48 | 1064.2 |
| 20260509134047 | 64 | 180 | 6.1 | 0.0 | 0.00 | 0.00 | 0.00 | 48 | 1064.1 |
| 20260509133933 | 64 | 157 | 4.3 | 0.0 | 0.00 | 0.00 | 0.00 | 48 | 1064.1 |
| 20260509133813 | 64 | 157 | 5.2 | 0.0 | 0.00 | 0.00 | 0.00 | 48 | 1064.1 |
| 20260509133700 | 64 | 135 | 5.2 | 0.0 | 0.00 | 0.00 | 0.00 | 48 | 1064.1 |
| 20260509133538 | 64 | 157 | 3.5 | 0.0 | 0.00 | 0.00 | 0.00 | 48 | 1064.1 |
| 20260509133417 | 64 | 112 | 1.7 | 0.0 | 0.00 | 0.00 | 0.00 | 48 | 1064.1 |
| 20260509133305 | 64 | 135 | 4.3 | 0.0 | 0.00 | 0.00 | 0.00 | 47 | 1064.1 |
| 20260509133158 | 64 | 135 | 7.0 | 0.0 | 0.00 | 0.00 | 0.00 | 47 | 1064.2 |
| 20260509133046 | 64 | 135 | 6.1 | 0.0 | 0.00 | 0.00 | 0.00 | 47 | 1064.3 |
| 20260509132925 | 64 | 157 | 11.3 | 0.0 | 0.00 | 0.00 | 0.00 | 47 | 1064.2 |
| 20260509132812 | 65 | 135 | 7.0 | 0.0 | 0.00 | 0.00 | 0.00 | 47 | 1064.2 |
| 20260509132658 | 65 | 135 | 5.2 | 0.0 | 0.00 | 0.00 | 0.00 | 47 | 1064.3 |
| 20260509132538 | 65 | 67 | 6.1 | 0.0 | 0.00 | 0.00 | 0.00 | 46 | 1064.3 |
| 20260509132424 | 65 | 180 | 8.7 | 0.0 | 0.00 | 0.00 | 0.00 | 45 | 1064.3 |
| 20260509132306 | 66 | 157 | 4.3 | 0.0 | 0.00 | 0.00 | 0.00 | 46 | 1064.3 |
| 20260509132153 | 66 | 135 | 3.5 | 0.0 | 0.00 | 0.00 | 0.00 | 46 | 1064.3 |
| 20260509132045 | 66 | 157 | 5.2 | 0.0 | 0.00 | 0.00 | 0.00 | 45 | 1064.3 |
| 20260509131932 | 66 | 135 | 5.2 | 0.0 | 0.00 | 0.00 | 0.00 | 46 | 1064.3 |
| 20260509131818 | 66 | 135 | 7.0 | 0.0 | 0.00 | 0.00 | 0.00 | 46 | 1064.3 |
| 20260509131550 | 65 | 112 | 5.2 | 0.0 | 0.00 | 0.00 | 0.00 | 46 | 1064.3 |
| 20260509131205 | 64 | 90 | 5.2 | 0.0 | 0.00 | 0.00 | 0.00 | 46 | 1064.4 |
| 20260509131052 | 65 | 135 | 5.2 | 0.0 | 0.00 | 0.00 | 0.00 | 45 | 1064.3 |
| 20260509130947 | 65 | 157 | 4.3 | 0.0 | 0.00 | 0.00 | 0.00 | 45 | 1064.4 |
| 20260509130833 | 65 | 135 | 8.7 | 0.0 | 0.00 | 0.00 | 0.00 | 45 | 1064.4 |
| 20260509130721 | 65 | 180 | 7.8 | 0.0 | 0.00 | 0.00 | 0.00 | 46 | 1064.5 |
| 20260509130607 | 65 | 202 | 5.2 | 0.0 | 0.00 | 0.00 | 0.00 | 46 | 1064.5 |
| 20260509130455 | 65 | 135 | 2.6 | 0.0 | 0.00 | 0.00 | 0.00 | 46 | 1064.5 |
| 20260509130333 | 65 | 157 | 0.0 | 0.0 | 0.00 | 0.00 | 0.00 | 46 | 1064.5 |
| 20260509130222 | 65 | 157 | 3.5 | 0.0 | 0.00 | 0.00 | 0.00 | 45 | 1064.5 |
| 20260509130115 | 65 | 135 | 7.8 | 0.0 | 0.00 | 0.00 | 0.00 | 45 | 1064.5 |
| 20260509130012 | 65 | 135 | 5.2 | 0.0 | 0.00 | 0.00 | 0.00 | 45 | 1064.5 |
| 20260509125905 | 65 | 135 | 0.0 | 0.0 | 0.00 | 0.00 | 0.00 | 45 | 1064.5 |
| 20260509125752 | 65 | 112 | 4.3 | 0.0 | 0.00 | 0.00 | 0.00 | 46 | 1064.5 |
| 20260509125648 | 65 | 90 | 1.7 | 0.0 | 0.00 | 0.00 | 0.00 | 46 | 1064.6 |
| 20260509125542 | 65 | 112 | 4.3 | 0.0 | 0.00 | 0.00 | 0.00 | 46 | 1064.5 |
| 20260509125437 | 65 | 112 | 0.9 | 0.0 | 0.00 | 0.00 | 0.00 | 47 | 1064.6 |
| 20260509125333 | 65 | 112 | 0.0 | 0.0 | 0.00 | 0.00 | 0.00 | 48 | 1064.5 |
| 20260509125226 | 65 | 0 | 0.0 | 0.0 | 0.00 | 0.00 | 0.00 | 47 | 1064.7 |
| 20260509125114 | 65 | 45 | 0.0 | 0.0 | 0.00 | 0.00 | 0.00 | 45 | 1064.7 |
| 20260509125001 | 65 | 112 | 9.6 | 0.0 | 0.00 | 0.00 | 0.00 | 46 | 1064.6 |
| 20260509124847 | 65 | 45 | 2.6 | 0.0 | 0.00 | 0.00 | 0.00 | 46 | 1064.6 |
| 20260509124734 | 65 | 112 | 5.2 | 0.0 | 0.00 | 0.00 | 0.00 | 46 | 1064.7 |
| 20260509124630 | 65 | 157 | 2.6 | 0.0 | 0.00 | 0.00 | 0.00 | 46 | 1064.5 |
| 20260509124516 | 65 | 135 | 5.2 | 0.0 | 0.00 | 0.00 | 0.00 | 46 | 1064.6 |
| 20260509124354 | 64 | 112 | 1.7 | 0.0 | 0.00 | 0.00 | 0.00 | 46 | 1064.5 |
| 20260509124241 | 64 | 112 | 5.2 | 0.0 | 0.00 | 0.00 | 0.00 | 46 | 1064.6 |
| 20260509124112 | 64 | 135 | 3.5 | 0.0 | 0.00 | 0.00 | 0.00 | 45 | 1064.6 |
| 20260509124001 | 64 | 90 | 3.5 | 0.0 | 0.00 | 0.00 | 0.00 | 45 | 1064.7 |
| 20260509123855 | 64 | 135 | 6.1 | 0.0 | 0.00 | 0.00 | 0.00 | 45 | 1064.6 |
| 20260509123750 | 64 | 135 | 5.2 | 0.0 | 0.00 | 0.00 | 0.00 | 46 | 1064.6 |
| 20260509123645 | 64 | 112 | 6.1 | 0.0 | 0.00 | 0.00 | 0.00 | 46 | 1064.6 |
| 20260509123523 | 64 | 135 | 5.2 | 0.0 | 0.00 | 0.00 | 0.00 | 46 | 1064.6 |
| 20260509123402 | 64 | 67 | 7.0 | 0.0 | 0.00 | 0.00 | 0.00 | 46 | 1064.7 |
| 20260509123241 | 64 | 135 | 7.0 | 0.0 | 0.00 | 0.00 | 0.00 | 46 | 1064.6 |
| 20260509123129 | 64 | 135 | 5.2 | 0.0 | 0.00 | 0.00 | 0.00 | 46 | 1064.7 |
| 20260509123023 | 64 | 112 | 6.1 | 0.0 | 0.00 | 0.00 | 0.00 | 47 | 1064.7 |
| 20260509122909 | 64 | 135 | 3.5 | 0.0 | 0.00 | 0.00 | 0.00 | 46 | 1064.7 |
| 20260509122756 | 64 | 157 | 1.7 | 0.0 | 0.00 | 0.00 | 0.00 | 47 | 1064.7 |
| 20260509122636 | 64 | 135 | 8.7 | 0.0 | 0.00 | 0.00 | 0.00 | 47 | 1064.7 |
| 20260509122531 | 64 | 135 | 6.1 | 0.0 | 0.00 | 0.00 | 0.00 | 47 | 1064.8 |
| 20260509122418 | 64 | 157 | 7.8 | 0.0 | 0.00 | 0.00 | 0.00 | 47 | 1064.8 |
| 20260509122313 | 64 | 157 | 4.3 | 0.0 | 0.00 | 0.00 | 0.00 | 46 | 1064.7 |
| 20260509122208 | 64 | 135 | 7.8 | 0.0 | 0.00 | 0.00 | 0.00 | 47 | 1064.9 |
| 20260509122103 | 64 | 157 | 4.3 | 0.0 | 0.00 | 0.00 | 0.00 | 46 | 1064.8 |
| 20260509121958 | 64 | 157 | 5.2 | 0.0 | 0.00 | 0.00 | 0.00 | 46 | 1064.9 |
| 20260509121853 | 64 | 135 | 5.2 | 0.0 | 0.00 | 0.00 | 0.00 | 46 | 1064.8 |
| 20260509121741 | 64 | 157 | 5.2 | 0.0 | 0.00 | 0.00 | 0.00 | 46 | 1064.8 |
| 20260509121619 | 64 | 157 | 8.7 | 0.0 | 0.00 | 0.00 | 0.00 | 46 | 1064.8 |
| 20260509121513 | 64 | 135 | 10.4 | 0.0 | 0.00 | 0.00 | 0.00 | 46 | 1064.9 |
| 20260509121400 | 64 | 112 | 6.1 | 0.0 | 0.00 | 0.00 | 0.00 | 46 | 1064.9 |
| 20260509121246 | 64 | 112 | 7.0 | 0.0 | 0.00 | 0.00 | 0.00 | 46 | 1064.8 |
| 20260509121133 | 64 | 180 | 5.2 | 0.0 | 0.00 | 0.00 | 0.00 | 45 | 1064.8 |
| 20260509121015 | 64 | 67 | 4.3 | 0.0 | 0.00 | 0.00 | 0.00 | 45 | 1064.8 |
| 20260509120908 | 64 | 22 | 3.5 | 0.0 | 0.00 | 0.00 | 0.00 | 44 | 1064.8 |
| 20260509120804 | 64 | 67 | 2.6 | 0.0 | 0.00 | 0.00 | 0.00 | 44 | 1065.0 |
| 20260509120644 | 64 | 45 | 1.7 | 0.0 | 0.00 | 0.00 | 0.00 | 44 | 1064.9 |
| 20260509120531 | 64 | 112 | 6.1 | 0.0 | 0.00 | 0.00 | 0.00 | 45 | 1064.9 |
| 20260509120420 | 64 | 22 | 4.3 | 0.0 | 0.00 | 0.00 | 0.00 | 45 | 1065.0 |
| 20260509120314 | 64 | 112 | 3.5 | 0.0 | 0.00 | 0.00 | 0.00 | 44 | 1065.0 |
| 20260509120200 | 64 | 22 | 4.3 | 0.0 | 0.00 | 0.00 | 0.00 | 44 | 1065.0 |
| 20260509120025 | 64 | 45 | 5.2 | 0.0 | 0.00 | 0.00 | 0.00 | 43 | 1065.0 |
| 20260509115919 | 65 | 90 | 9.6 | 0.0 | 0.00 | 0.00 | 0.00 | 43 | 1065.0 |
| 20260509115759 | 65 | 45 | 5.2 | 0.0 | 0.00 | 0.00 | 0.00 | 44 | 1065.0 |
| 20260509115645 | 65 | 90 | 3.5 | 0.0 | 0.00 | 0.00 | 0.00 | 44 | 1065.0 |
| 20260509115526 | 65 | 67 | 3.5 | 0.0 | 0.00 | 0.00 | 0.00 | 43 | 1065.0 |
| 20260509115410 | 65 | 67 | 5.2 | 0.0 | 0.00 | 0.00 | 0.00 | 43 | 1065.0 |
| 20260509115258 | 65 | 67 | 4.3 | 0.0 | 0.00 | 0.00 | 0.00 | 42 | 1065.0 |
| 20260509115144 | 65 | 112 | 4.3 | 0.0 | 0.00 | 0.00 | 0.00 | 42 | 1065.1 |
| 20260509115023 | 65 | 90 | 4.3 | 0.0 | 0.00 | 0.00 | 0.00 | 42 | 1064.9 |
| 20260509114910 | 65 | 135 | 3.5 | 0.0 | 0.00 | 0.00 | 0.00 | 42 | 1065.0 |
| 20260509114749 | 66 | 135 | 7.8 | 0.0 | 0.00 | 0.00 | 0.00 | 41 | 1065.0 |
| 20260509114627 | 66 | 112 | 8.7 | 0.0 | 0.00 | 0.00 | 0.00 | 41 | 1065.0 |
| 20260509114458 | 66 | 135 | 7.8 | 0.0 | 0.00 | 0.00 | 0.00 | 40 | 1065.0 |
| 20260509114345 | 67 | 90 | 7.8 | 0.0 | 0.00 | 0.00 | 0.00 | 40 | 1065.0 |
| 20260509114232 | 67 | 112 | 7.0 | 0.0 | 0.00 | 0.00 | 0.00 | 39 | 1065.0 |
| 20260509114120 | 68 | 157 | 3.5 | 0.0 | 0.00 | 0.00 | 0.00 | 39 | 1065.0 |
| 20260509114016 | 68 | 135 | 6.1 | 0.0 | 0.00 | 0.00 | 0.00 | 39 | 1065.0 |
| 20260509113910 | 68 | 90 | 5.2 | 0.0 | 0.00 | 0.00 | 0.00 | 39 | 1065.0 |
| 20260509113804 | 68 | 135 | 7.8 | 0.0 | 0.00 | 0.00 | 0.00 | 39 | 1065.1 |
| 20260509113651 | 69 | 135 | 7.8 | 0.0 | 0.00 | 0.00 | 0.00 | 38 | 1065.0 |
| 20260509113531 | 69 | 135 | 5.2 | 0.0 | 0.00 | 0.00 | 0.00 | 39 | 1065.0 |
| 20260509113408 | 69 | 112 | 7.8 | 0.0 | 0.00 | 0.00 | 0.00 | 40 | 1065.0 |
| 20260509113247 | 69 | 112 | 6.1 | 0.0 | 0.00 | 0.00 | 0.00 | 40 | 1065.0 |
| 20260509113128 | 68 | 112 | 5.2 | 0.0 | 0.00 | 0.00 | 0.00 | 40 | 1065.0 |
| 20260509113023 | 68 | 135 | 9.6 | 0.0 | 0.00 | 0.00 | 0.00 | 40 | 1065.1 |
| 20260509112918 | 68 | 135 | 3.5 | 0.0 | 0.00 | 0.00 | 0.00 | 41 | 1065.0 |
| 20260509112803 | 68 | 157 | 7.0 | 0.0 | 0.00 | 0.00 | 0.00 | 41 | 1065.0 |
| 20260509112649 | 68 | 135 | 5.2 | 0.0 | 0.00 | 0.00 | 0.00 | 41 | 1065.0 |
| 20260509112537 | 67 | 135 | 9.6 | 0.0 | 0.00 | 0.00 | 0.00 | 41 | 1065.0 |
| 20260509112423 | 67 | 112 | 7.0 | 0.0 | 0.00 | 0.00 | 0.00 | 43 | 1065.0 |
| 20260509112306 | 66 | 112 | 8.7 | 0.0 | 0.00 | 0.00 | 0.00 | 43 | 1065.0 |
| 20260509112143 | 66 | 135 | 5.2 | 0.0 | 0.00 | 0.00 | 0.00 | 42 | 1065.0 |
| 20260509112036 | 66 | 180 | 9.6 | 0.0 | 0.00 | 0.00 | 0.00 | 41 | 1065.1 |
| 20260509111923 | 66 | 135 | 7.8 | 0.0 | 0.00 | 0.00 | 0.00 | 43 | 1065.1 |
| 20260509111810 | 66 | 112 | 5.2 | 0.0 | 0.00 | 0.00 | 0.00 | 43 | 1065.0 |
| 20260509111649 | 66 | 112 | 3.5 | 0.0 | 0.00 | 0.00 | 0.00 | 43 | 1065.0 |
| 20260509111536 | 66 | 135 | 5.2 | 0.0 | 0.00 | 0.00 | 0.00 | 44 | 1065.0 |
| 20260509111430 | 66 | 45 | 6.1 | 0.0 | 0.00 | 0.00 | 0.00 | 44 | 1065.1 |
| 20260509111302 | 66 | 112 | 1.7 | 0.0 | 0.00 | 0.00 | 0.00 | 44 | 1065.1 |
| 20260509111159 | 66 | 112 | 0.0 | 0.0 | 0.00 | 0.00 | 0.00 | 43 | 1065.1 |
| 20260509111052 | 66 | 112 | 3.5 | 0.0 | 0.00 | 0.00 | 0.00 | 42 | 1065.2 |
| 20260509110940 | 66 | 90 | 12.2 | 0.0 | 0.00 | 0.00 | 0.00 | 43 | 1065.2 |
| 20260509110819 | 66 | 90 | 5.2 | 0.0 | 0.00 | 0.00 | 0.00 | 43 | 1065.2 |
| 20260509110652 | 66 | 22 | 1.7 | 0.0 | 0.00 | 0.00 | 0.00 | 43 | 1065.2 |
| 20260509110544 | 66 | 112 | 7.0 | 0.0 | 0.00 | 0.00 | 0.00 | 43 | 1065.2 |
| 20260509110432 | 67 | 0 | 4.3 | 0.0 | 0.00 | 0.00 | 0.00 | 42 | 1065.2 |
| 20260509110329 | 67 | 22 | 6.1 | 0.0 | 0.00 | 0.00 | 0.00 | 42 | 1065.2 |
| 20260509110223 | 67 | 90 | 5.2 | 0.0 | 0.00 | 0.00 | 0.00 | 42 | 1065.3 |
| 20260509110119 | 67 | 90 | 7.8 | 0.0 | 0.00 | 0.00 | 0.00 | 42 | 1065.3 |
| 20260509110011 | 67 | 90 | 7.0 | 0.0 | 0.00 | 0.00 | 0.00 | 41 | 1065.3 |
| 20260509105850 | 68 | 67 | 5.2 | 0.0 | 0.00 | 0.00 | 0.00 | 41 | 1065.3 |
| 20260509105745 | 67 | 112 | 5.2 | 0.0 | 0.00 | 0.00 | 0.00 | 42 | 1065.3 |
| 20260509105631 | 67 | 90 | 1.7 | 0.0 | 0.00 | 0.00 | 0.00 | 43 | 1065.3 |
| 20260509105511 | 66 | 135 | 5.2 | 0.0 | 0.00 | 0.00 | 0.00 | 43 | 1065.3 |
| 20260509105344 | 66 | 112 | 3.5 | 0.0 | 0.00 | 0.00 | 0.00 | 43 | 1065.3 |
| 20260509105228 | 66 | 67 | 3.5 | 0.0 | 0.00 | 0.00 | 0.00 | 44 | 1065.3 |
| 20260509105116 | 65 | 45 | 4.3 | 0.0 | 0.00 | 0.00 | 0.00 | 44 | 1065.3 |
| 20260509104954 | 65 | 112 | 5.2 | 0.0 | 0.00 | 0.00 | 0.00 | 43 | 1065.3 |
| 20260509104841 | 65 | 90 | 7.0 | 0.0 | 0.00 | 0.00 | 0.00 | 43 | 1065.3 |
| 20260509104728 | 65 | 67 | 7.8 | 0.0 | 0.00 | 0.00 | 0.00 | 43 | 1065.3 |
| 20260509104615 | 65 | 112 | 4.3 | 0.0 | 0.00 | 0.00 | 0.00 | 44 | 1065.3 |
| 20260509104454 | 65 | 112 | 3.5 | 0.0 | 0.00 | 0.00 | 0.00 | 42 | 1065.3 |
| 20260509104343 | 65 | 135 | 2.6 | 0.0 | 0.00 | 0.00 | 0.00 | 42 | 1065.3 |
| 20260509104235 | 65 | 112 | 5.2 | 0.0 | 0.00 | 0.00 | 0.00 | 42 | 1065.4 |
| 20260509104114 | 65 | 112 | 0.0 | 0.0 | 0.00 | 0.00 | 0.00 | 42 | 1065.4 |
| 20260509103953 | 65 | 67 | 3.5 | 0.0 | 0.00 | 0.00 | 0.00 | 43 | 1065.4 |
| 20260509103823 | 65 | 135 | 3.5 | 0.0 | 0.00 | 0.00 | 0.00 | 44 | 1065.4 |
| 20260509103711 | 65 | 112 | 4.3 | 0.0 | 0.00 | 0.00 | 0.00 | 43 | 1065.5 |
| 20260509103557 | 65 | 67 | 4.3 | 0.0 | 0.00 | 0.00 | 0.00 | 42 | 1065.4 |
| 20260509103437 | 65 | 135 | 3.5 | 0.0 | 0.00 | 0.00 | 0.00 | 42 | 1065.4 |
| 20260509103323 | 65 | 157 | 6.1 | 0.0 | 0.00 | 0.00 | 0.00 | 44 | 1065.3 |
| 20260509103202 | 65 | 135 | 2.6 | 0.0 | 0.00 | 0.00 | 0.00 | 44 | 1065.4 |
| 20260509103048 | 65 | 112 | 5.2 | 0.0 | 0.00 | 0.00 | 0.00 | 44 | 1065.4 |
| 20260509102936 | 65 | 135 | 6.1 | 0.0 | 0.00 | 0.00 | 0.00 | 43 | 1065.4 |
| 20260509102814 | 65 | 135 | 1.7 | 0.0 | 0.00 | 0.00 | 0.00 | 42 | 1065.4 |
| 20260509102653 | 65 | 135 | 5.2 | 0.0 | 0.00 | 0.00 | 0.00 | 43 | 1065.4 |
| 20260509102524 | 66 | 90 | 6.1 | 0.0 | 0.00 | 0.00 | 0.00 | 41 | 1065.4 |
| 20260509102402 | 66 | 90 | 8.7 | 0.0 | 0.00 | 0.00 | 0.00 | 42 | 1065.5 |
| 20260509102235 | 67 | 135 | 5.2 | 0.0 | 0.00 | 0.00 | 0.00 | 42 | 1065.4 |
| 20260509102128 | 67 | 135 | 6.1 | 0.0 | 0.00 | 0.00 | 0.00 | 42 | 1065.5 |
| 20260509102022 | 67 | 112 | 3.5 | 0.0 | 0.00 | 0.00 | 0.00 | 40 | 1065.5 |
| 20260509101902 | 67 | 112 | 4.3 | 0.0 | 0.00 | 0.00 | 0.00 | 40 | 1065.4 |
| 20260509101749 | 68 | 90 | 6.1 | 0.0 | 0.00 | 0.00 | 0.00 | 41 | 1065.5 |
| 20260509101643 | 68 | 135 | 4.3 | 0.0 | 0.00 | 0.00 | 0.00 | 41 | 1065.5 |
| 20260509101530 | 68 | 135 | 2.6 | 0.0 | 0.00 | 0.00 | 0.00 | 40 | 1065.5 |
| 20260509101418 | 69 | 135 | 8.7 | 0.0 | 0.00 | 0.00 | 0.00 | 41 | 1065.4 |
| 20260509101312 | 69 | 90 | 7.0 | 0.0 | 0.00 | 0.00 | 0.00 | 40 | 1065.5 |
| 20260509101150 | 69 | 135 | 1.7 | 0.0 | 0.00 | 0.00 | 0.00 | 42 | 1065.6 |
| 20260509101037 | 68 | 112 | 4.3 | 0.0 | 0.00 | 0.00 | 0.00 | 43 | 1065.6 |
| 20260509100923 | 68 | 22 | 2.6 | 0.0 | 0.00 | 0.00 | 0.00 | 44 | 1065.5 |
| 20260509100803 | 67 | 45 | 3.5 | 0.0 | 0.00 | 0.00 | 0.00 | 44 | 1065.5 |
| 20260509100651 | 67 | 67 | 6.1 | 0.0 | 0.00 | 0.00 | 0.00 | 45 | 1065.6 |
| 20260509100545 | 66 | 90 | 1.7 | 0.0 | 0.00 | 0.00 | 0.00 | 45 | 1065.5 |
| 20260509100431 | 66 | 67 | 5.2 | 0.0 | 0.00 | 0.00 | 0.00 | 46 | 1065.6 |
| 20260509100320 | 65 | 90 | 1.7 | 0.0 | 0.00 | 0.00 | 0.00 | 45 | 1065.5 |
| 20260509100214 | 65 | 67 | 8.7 | 0.0 | 0.00 | 0.00 | 0.00 | 46 | 1065.6 |
| 20260509095948 | 65 | 90 | 0.0 | 0.0 | 0.00 | 0.00 | 0.00 | 45 | 1065.6 |
| 20260509095843 | 65 | 135 | 5.2 | 0.0 | 0.00 | 0.00 | 0.00 | 45 | 1065.7 |
| 20260509095723 | 65 | 90 | 5.2 | 0.0 | 0.00 | 0.00 | 0.00 | 45 | 1065.6 |
| 20260509095608 | 66 | 112 | 3.5 | 0.0 | 0.00 | 0.00 | 0.00 | 44 | 1065.6 |
| 20260509095455 | 66 | 112 | 6.1 | 0.0 | 0.00 | 0.00 | 0.00 | 43 | 1065.7 |
| 20260509095326 | 66 | 67 | 4.3 | 0.0 | 0.00 | 0.00 | 0.00 | 43 | 1065.6 |
| 20260509095213 | 66 | 135 | 5.2 | 0.0 | 0.00 | 0.00 | 0.00 | 42 | 1065.6 |
| 20260509095052 | 67 | 135 | 8.7 | 0.0 | 0.00 | 0.00 | 0.00 | 42 | 1065.7 |
| 20260509094930 | 67 | 90 | 6.1 | 0.0 | 0.00 | 0.00 | 0.00 | 42 | 1065.7 |
| 20260509094801 | 67 | 112 | 5.2 | 0.0 | 0.00 | 0.00 | 0.00 | 42 | 1065.7 |
| 20260509094648 | 67 | 112 | 6.1 | 0.0 | 0.00 | 0.00 | 0.00 | 43 | 1065.7 |
| 20260509094529 | 67 | 135 | 4.3 | 0.0 | 0.00 | 0.00 | 0.00 | 43 | 1065.7 |
| 20260509094422 | 67 | 112 | 3.5 | 0.0 | 0.00 | 0.00 | 0.00 | 42 | 1065.7 |
| 20260509094300 | 67 | 112 | 0.0 | 0.0 | 0.00 | 0.00 | 0.00 | 43 | 1065.7 |
| 20260509094132 | 67 | 90 | 3.5 | 0.0 | 0.00 | 0.00 | 0.00 | 42 | 1065.8 |
| 20260509094018 | 67 | 90 | 3.5 | 0.0 | 0.00 | 0.00 | 0.00 | 41 | 1065.8 |
| 20260509093859 | 68 | 90 | 5.2 | 0.0 | 0.00 | 0.00 | 0.00 | 41 | 1065.8 |
| 20260509093743 | 68 | 90 | 3.5 | 0.0 | 0.00 | 0.00 | 0.00 | 41 | 1065.8 |
| 20260509093631 | 68 | 112 | 4.3 | 0.0 | 0.00 | 0.00 | 0.00 | 41 | 1065.8 |
| 20260509093517 | 68 | 112 | 5.2 | 0.0 | 0.00 | 0.00 | 0.00 | 42 | 1065.9 |
| 20260509093357 | 67 | 112 | 5.2 | 0.0 | 0.00 | 0.00 | 0.00 | 43 | 1065.9 |
| 20260509093244 | 66 | 112 | 5.2 | 0.0 | 0.00 | 0.00 | 0.00 | 43 | 1065.9 |
| 20260509093130 | 66 | 135 | 5.2 | 0.0 | 0.00 | 0.00 | 0.00 | 43 | 1065.9 |
| 20260509093010 | 65 | 135 | 2.6 | 0.0 | 0.00 | 0.00 | 0.00 | 44 | 1065.9 |
| 20260509092856 | 65 | 112 | 4.3 | 0.0 | 0.00 | 0.00 | 0.00 | 45 | 1065.9 |
| 20260509092737 | 65 | 135 | 1.7 | 0.0 | 0.00 | 0.00 | 0.00 | 45 | 1065.9 |
| 20260509092630 | 65 | 180 | 4.3 | 0.0 | 0.00 | 0.00 | 0.00 | 44 | 1065.9 |
| 20260509092518 | 66 | 157 | 5.2 | 0.0 | 0.00 | 0.00 | 0.00 | 44 | 1065.9 |
| 20260509092412 | 66 | 112 | 6.1 | 0.0 | 0.00 | 0.00 | 0.00 | 43 | 1065.9 |
| 20260509092259 | 66 | 135 | 7.8 | 0.0 | 0.00 | 0.00 | 0.00 | 44 | 1065.9 |
| 20260509092138 | 66 | 157 | 7.0 | 0.0 | 0.00 | 0.00 | 0.00 | 44 | 1065.8 |
| 20260509092017 | 66 | 135 | 4.3 | 0.0 | 0.00 | 0.00 | 0.00 | 44 | 1065.9 |
| 20260509091855 | 65 | 180 | 6.1 | 0.0 | 0.00 | 0.00 | 0.00 | 45 | 1065.9 |
| 20260509091734 | 65 | 135 | 1.7 | 0.0 | 0.00 | 0.00 | 0.00 | 44 | 1065.9 |
| 20260509091613 | 65 | 135 | 4.3 | 0.0 | 0.00 | 0.00 | 0.00 | 42 | 1065.8 |
| 20260509091500 | 66 | 157 | 5.2 | 0.0 | 0.00 | 0.00 | 0.00 | 41 | 1065.9 |
| 20260509091332 | 67 | 180 | 5.2 | 0.0 | 0.00 | 0.00 | 0.00 | 42 | 1065.9 |
| 20260509091210 | 67 | 157 | 5.2 | 0.0 | 0.00 | 0.00 | 0.00 | 42 | 1065.9 |
| 20260509091058 | 67 | 135 | 0.0 | 0.0 | 0.00 | 0.00 | 0.00 | 42 | 1065.9 |
| 20260509090943 | 67 | 135 | 4.3 | 0.0 | 0.00 | 0.00 | 0.00 | 42 | 1065.9 |
| 20260509090831 | 67 | 135 | 7.0 | 0.0 | 0.00 | 0.00 | 0.00 | 42 | 1065.9 |
| 20260509090718 | 67 | 135 | 6.1 | 0.0 | 0.00 | 0.00 | 0.00 | 42 | 1065.9 |
| 20260509090606 | 67 | 157 | 7.8 | 0.0 | 0.00 | 0.00 | 0.00 | 42 | 1065.8 |
| 20260509090459 | 67 | 112 | 0.9 | 0.0 | 0.00 | 0.00 | 0.00 | 43 | 1065.9 |
| 20260509090338 | 66 | 135 | 7.0 | 0.0 | 0.00 | 0.00 | 0.00 | 44 | 1065.8 |
| 20260509090216 | 65 | 90 | 1.7 | 0.0 | 0.00 | 0.00 | 0.00 | 44 | 1065.9 |
| 20260509090055 | 65 | 135 | 3.5 | 0.0 | 0.00 | 0.00 | 0.00 | 44 | 1065.8 |
| 20260509085934 | 65 | 135 | 3.5 | 0.0 | 0.00 | 0.00 | 0.00 | 42 | 1065.8 |
| 20260509085821 | 66 | 157 | 5.2 | 0.0 | 0.00 | 0.00 | 0.00 | 41 | 1065.8 |
| 20260509085658 | 66 | 157 | 7.8 | 0.0 | 0.00 | 0.00 | 0.00 | 40 | 1065.8 |
| 20260509085530 | 67 | 135 | 8.7 | 0.0 | 0.00 | 0.00 | 0.00 | 39 | 1065.8 |
| 20260509085410 | 67 | 135 | 11.3 | 0.0 | 0.00 | 0.00 | 0.00 | 40 | 1065.8 |
| 20260509085306 | 67 | 112 | 6.1 | 0.0 | 0.00 | 0.00 | 0.00 | 42 | 1065.7 |
| 20260509085143 | 65 | 90 | 1.7 | 0.0 | 0.00 | 0.00 | 0.00 | 44 | 1065.7 |
| 20260509085030 | 65 | 135 | 5.2 | 0.0 | 0.00 | 0.00 | 0.00 | 44 | 1065.7 |
| 20260509084924 | 64 | 90 | 8.7 | 0.0 | 0.00 | 0.00 | 0.00 | 43 | 1065.8 |
| 20260509084803 | 64 | 135 | 5.2 | 0.0 | 0.00 | 0.00 | 0.00 | 42 | 1065.8 |
| 20260509084643 | 64 | 90 | 7.8 | 0.0 | 0.00 | 0.00 | 0.00 | 43 | 1065.8 |
| 20260509084537 | 64 | 135 | 5.2 | 0.0 | 0.00 | 0.00 | 0.00 | 43 | 1065.8 |
| 20260509084424 | 64 | 112 | 5.2 | 0.0 | 0.00 | 0.00 | 0.00 | 43 | 1065.8 |
| 20260509084303 | 65 | 112 | 4.3 | 0.0 | 0.00 | 0.00 | 0.00 | 43 | 1065.8 |
| 20260509084142 | 65 | 112 | 5.2 | 0.0 | 0.00 | 0.00 | 0.00 | 42 | 1065.8 |
| 20260509084022 | 66 | 135 | 3.5 | 0.0 | 0.00 | 0.00 | 0.00 | 43 | 1065.8 |
| 20260509083918 | 66 | 112 | 2.6 | 0.0 | 0.00 | 0.00 | 0.00 | 41 | 1065.8 |
| 20260509083813 | 66 | 45 | 4.3 | 0.0 | 0.00 | 0.00 | 0.00 | 42 | 1065.8 |
| 20260509083705 | 67 | 112 | 3.5 | 0.0 | 0.00 | 0.00 | 0.00 | 41 | 1065.8 |
| 20260509083544 | 68 | 135 | 7.0 | 0.0 | 0.00 | 0.00 | 0.00 | 39 | 1065.8 |
| 20260509083423 | 68 | 135 | 6.1 | 0.0 | 0.00 | 0.00 | 0.00 | 39 | 1065.8 |
| 20260509083310 | 69 | 112 | 0.0 | 0.0 | 0.00 | 0.00 | 0.00 | 37 | 1065.8 |
| 20260509083157 | 69 | 67 | 6.1 | 0.0 | 0.00 | 0.00 | 0.00 | 37 | 1065.8 |
| 20260509083034 | 70 | 112 | 6.1 | 0.0 | 0.00 | 0.00 | 0.00 | 39 | 1065.8 |
| 20260509082922 | 70 | 90 | 6.1 | 0.0 | 0.00 | 0.00 | 0.00 | 39 | 1065.9 |
| 20260509082808 | 71 | 112 | 6.1 | 0.0 | 0.00 | 0.00 | 0.00 | 39 | 1065.9 |
| 20260509082659 | 71 | 22 | 2.6 | 0.0 | 0.00 | 0.00 | 0.00 | 40 | 1066.0 |
| 20260509082551 | 71 | 135 | 8.7 | 0.0 | 0.00 | 0.00 | 0.00 | 39 | 1066.0 |
| 20260509082440 | 71 | 135 | 5.2 | 0.0 | 0.00 | 0.00 | 0.00 | 40 | 1066.0 |
| 20260509082333 | 71 | 157 | 4.3 | 0.0 | 0.00 | 0.00 | 0.00 | 40 | 1066.1 |
| 20260509082219 | 71 | 157 | 6.1 | 0.0 | 0.00 | 0.00 | 0.00 | 41 | 1066.0 |
| 20260509082101 | 71 | 135 | 4.3 | 0.0 | 0.00 | 0.00 | 0.00 | 41 | 1066.0 |
| 20260509081947 | 70 | 112 | 7.0 | 0.0 | 0.00 | 0.00 | 0.00 | 42 | 1066.0 |
| 20260509081843 | 70 | 112 | 0.0 | 0.0 | 0.00 | 0.00 | 0.00 | 43 | 1066.0 |
| 20260509081735 | 69 | 112 | 2.6 | 0.0 | 0.00 | 0.00 | 0.00 | 43 | 1066.1 |
| 20260509081622 | 69 | 135 | 5.2 | 0.0 | 0.00 | 0.00 | 0.00 | 43 | 1066.0 |
| 20260509081454 | 69 | 135 | 4.3 | 0.0 | 0.00 | 0.00 | 0.00 | 42 | 1066.0 |
| 20260509081340 | 69 | 67 | 5.2 | 0.0 | 0.00 | 0.00 | 0.00 | 42 | 1066.0 |
| 20260509081226 | 69 | 112 | 5.2 | 0.0 | 0.00 | 0.00 | 0.00 | 41 | 1066.1 |
| 20260509081114 | 69 | 90 | 6.1 | 0.0 | 0.00 | 0.00 | 0.00 | 42 | 1066.1 |
| 20260509080953 | 70 | 90 | 8.7 | 0.0 | 0.00 | 0.00 | 0.00 | 42 | 1066.2 |
| 20260509080847 | 71 | 112 | 5.2 | 0.0 | 0.00 | 0.00 | 0.00 | 43 | 1066.1 |
| 20260509080725 | 70 | 112 | 7.8 | 0.0 | 0.00 | 0.00 | 0.00 | 44 | 1066.1 |
| 20260509080606 | 70 | 112 | 0.0 | 0.0 | 0.00 | 0.00 | 0.00 | 44 | 1066.0 |
| 20260509080500 | 70 | 135 | 0.0 | 0.0 | 0.00 | 0.00 | 0.00 | 45 | 1066.1 |
| 20260509080355 | 69 | 135 | 0.0 | 0.0 | 0.00 | 0.00 | 0.00 | 44 | 1066.1 |
| 20260509080250 | 69 | 135 | 1.7 | 0.0 | 0.00 | 0.00 | 0.00 | 43 | 1065.9 |
| 20260509080129 | 70 | 135 | 5.2 | 0.0 | 0.00 | 0.00 | 0.00 | 43 | 1066.0 |
| 20260509080025 | 70 | 135 | 6.1 | 0.0 | 0.00 | 0.00 | 0.00 | 42 | 1066.0 |
| 20260509075918 | 71 | 112 | 2.6 | 0.0 | 0.00 | 0.00 | 0.00 | 43 | 1066.1 |
| 20260509075757 | 71 | 67 | 1.7 | 0.0 | 0.00 | 0.00 | 0.00 | 44 | 1066.0 |
| 20260509075646 | 70 | 112 | 2.6 | 0.0 | 0.00 | 0.00 | 0.00 | 45 | 1066.2 |
| 20260509075531 | 69 | 157 | 3.5 | 0.0 | 0.00 | 0.00 | 0.00 | 46 | 1066.0 |
| 20260509075409 | 69 | 135 | 1.7 | 0.0 | 0.00 | 0.00 | 0.00 | 45 | 1066.1 |
| 20260509075239 | 69 | 135 | 5.2 | 0.0 | 0.00 | 0.00 | 0.00 | 45 | 1066.2 |
| 20260509075120 | 70 | 67 | 3.5 | 0.0 | 0.00 | 0.00 | 0.00 | 44 | 1066.0 |
| 20260509074957 | 70 | 135 | 7.0 | 0.0 | 0.00 | 0.00 | 0.00 | 45 | 1066.1 |
| 20260509074845 | 70 | 157 | 5.2 | 0.0 | 0.00 | 0.00 | 0.00 | 45 | 1066.2 |
| 20260509074734 | 70 | 135 | 6.1 | 0.0 | 0.00 | 0.00 | 0.00 | 46 | 1066.0 |
| 20260509074626 | 70 | 112 | 4.3 | 0.0 | 0.00 | 0.00 | 0.00 | 47 | 1066.1 |
| 20260509074506 | 69 | 90 | 4.3 | 0.0 | 0.00 | 0.00 | 0.00 | 48 | 1066.1 |
| 20260509074352 | 69 | 112 | 4.3 | 0.0 | 0.00 | 0.00 | 0.00 | 48 | 1066.2 |
| 20260509074233 | 69 | 135 | 5.2 | 0.0 | 0.00 | 0.00 | 0.00 | 48 | 1066.2 |
| 20260509074125 | 68 | 135 | 1.7 | 0.0 | 0.00 | 0.00 | 0.00 | 49 | 1066.1 |
| 20260509074012 | 68 | 135 | 0.9 | 0.0 | 0.00 | 0.00 | 0.00 | 48 | 1066.1 |
| 20260509073859 | 68 | 135 | 4.3 | 0.0 | 0.00 | 0.00 | 0.00 | 47 | 1066.1 |
| 20260509073730 | 68 | 67 | 5.2 | 0.0 | 0.00 | 0.00 | 0.00 | 49 | 1066.1 |
| 20260509073609 | 68 | 135 | 3.5 | 0.0 | 0.00 | 0.00 | 0.00 | 49 | 1066.1 |
| 20260509073456 | 68 | 112 | 6.1 | 0.0 | 0.00 | 0.00 | 0.00 | 49 | 1066.1 |
| 20260509073343 | 68 | 112 | 5.2 | 0.0 | 0.00 | 0.00 | 0.00 | 50 | 1066.0 |
| 20260509073230 | 67 | 135 | 3.5 | 0.0 | 0.00 | 0.00 | 0.00 | 49 | 1066.2 |
| 20260509073108 | 67 | 135 | 6.1 | 0.0 | 0.00 | 0.00 | 0.00 | 50 | 1066.1 |
| 20260509072954 | 67 | 135 | 4.3 | 0.0 | 0.00 | 0.00 | 0.00 | 50 | 1066.1 |
| 20260509072834 | 67 | 135 | 6.1 | 0.0 | 0.00 | 0.00 | 0.00 | 50 | 1066.0 |
| 20260509072713 | 67 | 135 | 3.5 | 0.0 | 0.00 | 0.00 | 0.00 | 49 | 1066.0 |
| 20260509072559 | 68 | 157 | 4.3 | 0.0 | 0.00 | 0.00 | 0.00 | 49 | 1066.0 |
| 20260509072439 | 68 | 157 | 7.8 | 0.0 | 0.00 | 0.00 | 0.00 | 49 | 1065.9 |
| 20260509072325 | 68 | 112 | 4.3 | 0.0 | 0.00 | 0.00 | 0.00 | 51 | 1065.9 |
| 20260509072212 | 68 | 135 | 4.3 | 0.0 | 0.00 | 0.00 | 0.00 | 51 | 1065.9 |
| 20260509072101 | 68 | 135 | 4.3 | 0.0 | 0.00 | 0.00 | 0.00 | 51 | 1066.0 |
| 20260509071953 | 67 | 135 | 6.1 | 0.0 | 0.00 | 0.00 | 0.00 | 52 | 1066.0 |
| 20260509071841 | 67 | 135 | 0.0 | 0.0 | 0.00 | 0.00 | 0.00 | 53 | 1066.0 |
| 20260509071728 | 66 | 157 | 3.5 | 0.0 | 0.00 | 0.00 | 0.00 | 54 | 1066.1 |
| 20260509071614 | 66 | 112 | 5.2 | 0.0 | 0.00 | 0.00 | 0.00 | 54 | 1066.0 |
| 20260509071501 | 66 | 135 | 0.0 | 0.0 | 0.00 | 0.00 | 0.00 | 54 | 1065.9 |
| 20260509071348 | 66 | 180 | 5.2 | 0.0 | 0.00 | 0.00 | 0.00 | 54 | 1066.0 |
| 20260509071235 | 65 | 112 | 4.3 | 0.0 | 0.00 | 0.00 | 0.00 | 54 | 1066.0 |
| 20260509071123 | 65 | 135 | 6.1 | 0.0 | 0.00 | 0.00 | 0.00 | 54 | 1066.1 |
| 20260509071018 | 65 | 135 | 5.2 | 0.0 | 0.00 | 0.00 | 0.00 | 54 | 1066.2 |
| 20260509070903 | 65 | 135 | 1.7 | 0.0 | 0.00 | 0.00 | 0.00 | 56 | 1066.1 |
| 20260509070744 | 64 | 135 | 5.2 | 0.0 | 0.00 | 0.00 | 0.00 | 56 | 1066.1 |
| 20260509070637 | 64 | 135 | 7.0 | 0.0 | 0.00 | 0.00 | 0.00 | 56 | 1066.0 |
| 20260509070524 | 64 | 135 | 2.6 | 0.0 | 0.00 | 0.00 | 0.00 | 56 | 1066.0 |
| 20260509070403 | 64 | 135 | 4.3 | 0.0 | 0.00 | 0.00 | 0.00 | 55 | 1066.0 |
| 20260509070250 | 64 | 135 | 5.2 | 0.0 | 0.00 | 0.00 | 0.00 | 56 | 1065.9 |
| 20260509070129 | 64 | 157 | 6.1 | 0.0 | 0.00 | 0.00 | 0.00 | 57 | 1066.1 |
| 20260509070008 | 63 | 135 | 0.0 | 0.0 | 0.00 | 0.00 | 0.00 | 57 | 1066.3 |
| 20260509065854 | 63 | 157 | 1.7 | 0.0 | 0.00 | 0.00 | 0.00 | 56 | 1066.1 |
| 20260509065740 | 63 | 135 | 4.3 | 0.0 | 0.00 | 0.00 | 0.00 | 57 | 1066.0 |
| 20260509065627 | 63 | 157 | 2.6 | 0.0 | 0.00 | 0.00 | 0.00 | 58 | 1065.9 |
| 20260509065457 | 62 | 157 | 4.3 | 0.0 | 0.00 | 0.00 | 0.00 | 57 | 1066.0 |
| 20260509065329 | 62 | 135 | 5.2 | 0.0 | 0.00 | 0.00 | 0.00 | 59 | 1066.0 |
| 20260509065224 | 62 | 112 | 4.3 | 0.0 | 0.00 | 0.00 | 0.00 | 59 | 1065.9 |
| 20260509065110 | 62 | 135 | 4.3 | 0.0 | 0.00 | 0.00 | 0.00 | 59 | 1066.0 |
| 20260509064949 | 62 | 112 | 5.2 | 0.0 | 0.00 | 0.00 | 0.00 | 60 | 1065.9 |
| 20260509064827 | 61 | 135 | 3.5 | 0.0 | 0.00 | 0.00 | 0.00 | 60 | 1065.9 |
| 20260509064707 | 61 | 135 | 5.2 | 0.0 | 0.00 | 0.00 | 0.00 | 61 | 1066.0 |
| 20260509064554 | 60 | 157 | 3.5 | 0.0 | 0.00 | 0.00 | 0.00 | 61 | 1065.9 |
| 20260509064448 | 60 | 180 | 6.1 | 0.0 | 0.00 | 0.00 | 0.00 | 61 | 1066.0 |
| 20260509064328 | 60 | 180 | 7.0 | 0.0 | 0.00 | 0.00 | 0.00 | 61 | 1065.9 |
| 20260509064222 | 60 | 135 | 4.3 | 0.0 | 0.00 | 0.00 | 0.00 | 61 | 1066.0 |
| 20260509064109 | 60 | 157 | 3.5 | 0.0 | 0.00 | 0.00 | 0.00 | 62 | 1066.0 |
| 20260509063956 | 60 | 135 | 3.5 | 0.0 | 0.00 | 0.00 | 0.00 | 62 | 1065.9 |
| 20260509063834 | 59 | 135 | 7.0 | 0.0 | 0.00 | 0.00 | 0.00 | 62 | 1065.9 |
| 20260509063714 | 59 | 157 | 8.7 | 0.0 | 0.00 | 0.00 | 0.00 | 62 | 1065.9 |
| 20260509063609 | 59 | 135 | 5.2 | 0.0 | 0.00 | 0.00 | 0.00 | 62 | 1066.0 |
| 20260509063449 | 59 | 112 | 7.0 | 0.0 | 0.00 | 0.00 | 0.00 | 62 | 1066.0 |
| 20260509063344 | 59 | 135 | 2.6 | 0.0 | 0.00 | 0.00 | 0.00 | 62 | 1066.0 |
| 20260509063237 | 59 | 112 | 4.3 | 0.0 | 0.00 | 0.00 | 0.00 | 63 | 1065.9 |
| 20260509063124 | 59 | 112 | 6.1 | 0.0 | 0.00 | 0.00 | 0.00 | 63 | 1065.9 |
| 20260509063011 | 59 | 135 | 5.2 | 0.0 | 0.00 | 0.00 | 0.00 | 63 | 1066.0 |
| 20260509062906 | 59 | 112 | 4.3 | 0.0 | 0.00 | 0.00 | 0.00 | 63 | 1066.0 |
| 20260509062737 | 59 | 157 | 7.0 | 0.0 | 0.00 | 0.00 | 0.00 | 62 | 1066.0 |
| 20260509062624 | 59 | 135 | 7.0 | 0.0 | 0.00 | 0.00 | 0.00 | 62 | 1066.0 |
| 20260509062456 | 59 | 135 | 5.2 | 0.0 | 0.00 | 0.00 | 0.00 | 63 | 1065.9 |
| 20260509062351 | 59 | 135 | 7.0 | 0.0 | 0.00 | 0.00 | 0.00 | 63 | 1066.0 |
| 20260509062244 | 59 | 135 | 5.2 | 0.0 | 0.00 | 0.00 | 0.00 | 63 | 1066.0 |
| 20260509062131 | 59 | 135 | 5.2 | 0.0 | 0.00 | 0.00 | 0.00 | 63 | 1066.0 |
| 20260509062026 | 59 | 135 | 5.2 | 0.0 | 0.00 | 0.00 | 0.00 | 63 | 1066.0 |
| 20260509061913 | 59 | 135 | 7.0 | 0.0 | 0.00 | 0.00 | 0.00 | 63 | 1066.0 |
| 20260509061801 | 59 | 157 | 5.2 | 0.0 | 0.00 | 0.00 | 0.00 | 62 | 1066.0 |
| 20260509061655 | 60 | 112 | 6.1 | 0.0 | 0.00 | 0.00 | 0.00 | 62 | 1066.0 |
| 20260509061542 | 60 | 135 | 8.7 | 0.0 | 0.00 | 0.00 | 0.00 | 62 | 1066.1 |
| 20260509061428 | 60 | 157 | 7.8 | 0.0 | 0.00 | 0.00 | 0.00 | 63 | 1066.0 |
| 20260509061259 | 60 | 157 | 1.7 | 0.0 | 0.00 | 0.00 | 0.00 | 63 | 1065.9 |
| 20260509061145 | 60 | 112 | 1.7 | 0.0 | 0.00 | 0.00 | 0.00 | 63 | 1065.9 |
| 20260509061025 | 60 | 157 | 3.5 | 0.0 | 0.00 | 0.00 | 0.00 | 63 | 1066.0 |
| 20260509060913 | 60 | 112 | 4.3 | 0.0 | 0.00 | 0.00 | 0.00 | 64 | 1066.0 |
| 20260509060759 | 59 | 135 | 1.7 | 0.0 | 0.00 | 0.00 | 0.00 | 64 | 1066.0 |
| 20260509060654 | 59 | 135 | 3.5 | 0.0 | 0.00 | 0.00 | 0.00 | 64 | 1066.0 |
| 20260509060548 | 59 | 135 | 3.5 | 0.0 | 0.00 | 0.00 | 0.00 | 65 | 1066.0 |
| 20260509060435 | 59 | 135 | 2.6 | 0.0 | 0.00 | 0.00 | 0.00 | 64 | 1066.0 |
| 20260509060321 | 59 | 157 | 4.3 | 0.0 | 0.00 | 0.00 | 0.00 | 64 | 1065.9 |
| 20260509060211 | 59 | 157 | 5.2 | 0.0 | 0.00 | 0.00 | 0.00 | 65 | 1066.0 |
| 20260509060106 | 59 | 135 | 3.5 | 0.0 | 0.00 | 0.00 | 0.00 | 65 | 1066.0 |
| 20260509055958 | 59 | 135 | 4.3 | 0.0 | 0.00 | 0.00 | 0.00 | 65 | 1066.0 |
| 20260509055836 | 59 | 157 | 2.6 | 0.0 | 0.00 | 0.00 | 0.00 | 65 | 1066.0 |
| 20260509055716 | 58 | 135 | 2.6 | 0.0 | 0.00 | 0.00 | 0.00 | 65 | 1066.0 |
| 20260509055603 | 58 | 157 | 1.7 | 0.0 | 0.00 | 0.00 | 0.00 | 65 | 1066.0 |
| 20260509055458 | 58 | 157 | 5.2 | 0.0 | 0.00 | 0.00 | 0.00 | 65 | 1065.9 |
| 20260509055329 | 58 | 112 | 1.7 | 0.0 | 0.00 | 0.00 | 0.00 | 65 | 1065.9 |
| 20260509055215 | 58 | 135 | 6.1 | 0.0 | 0.00 | 0.00 | 0.00 | 66 | 1066.0 |
| 20260509055046 | 58 | 135 | 4.3 | 0.0 | 0.00 | 0.00 | 0.00 | 67 | 1065.9 |
| 20260509054933 | 58 | 135 | 1.7 | 0.0 | 0.00 | 0.00 | 0.00 | 67 | 1065.9 |
| 20260509054828 | 57 | 135 | 0.9 | 0.0 | 0.00 | 0.00 | 0.00 | 67 | 1065.9 |
| 20260509054706 | 58 | 135 | 5.2 | 0.0 | 0.00 | 0.00 | 0.00 | 67 | 1065.9 |
| 20260509054545 | 58 | 135 | 4.3 | 0.0 | 0.00 | 0.00 | 0.00 | 67 | 1065.9 |
| 20260509054417 | 57 | 135 | 2.6 | 0.0 | 0.00 | 0.00 | 0.00 | 67 | 1065.9 |
| 20260509054312 | 57 | 135 | 4.3 | 0.0 | 0.00 | 0.00 | 0.00 | 67 | 1066.0 |
| 20260509054207 | 57 | 135 | 4.3 | 0.0 | 0.00 | 0.00 | 0.00 | 68 | 1065.9 |
| 20260509054052 | 57 | 135 | 1.7 | 0.0 | 0.00 | 0.00 | 0.00 | 68 | 1065.9 |
| 20260509053924 | 57 | 135 | 3.5 | 0.0 | 0.00 | 0.00 | 0.00 | 68 | 1065.8 |
| 20260509053811 | 57 | 135 | 4.3 | 0.0 | 0.00 | 0.00 | 0.00 | 68 | 1065.9 |
| 20260509053705 | 57 | 135 | 5.2 | 0.0 | 0.00 | 0.00 | 0.00 | 69 | 1065.9 |
| 20260509053552 | 57 | 135 | 4.3 | 0.0 | 0.00 | 0.00 | 0.00 | 70 | 1065.8 |
| 20260509053439 | 56 | 135 | 0.0 | 0.0 | 0.00 | 0.00 | 0.00 | 70 | 1065.9 |
| 20260509053325 | 56 | 135 | 0.9 | 0.0 | 0.00 | 0.00 | 0.00 | 70 | 1065.8 |
| 20260509053212 | 56 | 135 | 1.7 | 0.0 | 0.00 | 0.00 | 0.00 | 70 | 1065.8 |
| 20260509053059 | 56 | 135 | 3.5 | 0.0 | 0.00 | 0.00 | 0.00 | 70 | 1065.8 |
| 20260509052947 | 56 | 135 | 3.5 | 0.0 | 0.00 | 0.00 | 0.00 | 70 | 1065.8 |
| 20260509052833 | 56 | 135 | 3.5 | 0.0 | 0.00 | 0.00 | 0.00 | 71 | 1065.8 |
| 20260509052727 | 55 | 135 | 1.7 | 0.0 | 0.00 | 0.00 | 0.00 | 71 | 1065.9 |
| 20260509052606 | 55 | 135 | 5.2 | 0.0 | 0.00 | 0.00 | 0.00 | 71 | 1065.8 |
| 20260509052447 | 55 | 135 | 0.0 | 0.0 | 0.00 | 0.00 | 0.00 | 72 | 1065.8 |
| 20260509052330 | 55 | 135 | 0.0 | 0.0 | 0.00 | 0.00 | 0.00 | 72 | 1065.8 |
| 20260509052211 | 54 | 135 | 4.3 | 0.0 | 0.00 | 0.00 | 0.00 | 72 | 1065.8 |
| 20260509052105 | 54 | 135 | 5.2 | 0.0 | 0.00 | 0.00 | 0.00 | 72 | 1065.7 |
| 20260509051954 | 54 | 135 | 3.5 | 0.0 | 0.00 | 0.00 | 0.00 | 72 | 1065.8 |
| 20260509051839 | 54 | 157 | 4.3 | 0.0 | 0.00 | 0.00 | 0.00 | 72 | 1065.8 |
| 20260509051734 | 54 | 135 | 4.3 | 0.0 | 0.00 | 0.00 | 0.00 | 73 | 1065.8 |
| 20260509051614 | 54 | 135 | 5.2 | 0.0 | 0.00 | 0.00 | 0.00 | 73 | 1065.8 |
| 20260509051459 | 54 | 135 | 4.3 | 0.0 | 0.00 | 0.00 | 0.00 | 73 | 1065.8 |
| 20260509051345 | 54 | 135 | 3.5 | 0.0 | 0.00 | 0.00 | 0.00 | 74 | 1065.7 |
| 20260509051224 | 54 | 135 | 2.6 | 0.0 | 0.00 | 0.00 | 0.00 | 74 | 1065.9 |
| 20260509051106 | 53 | 112 | 3.5 | 0.0 | 0.00 | 0.00 | 0.00 | 75 | 1065.8 |
| 20260509050957 | 53 | 135 | 1.7 | 0.0 | 0.00 | 0.00 | 0.00 | 75 | 1065.7 |
| 20260509050844 | 53 | 135 | 1.7 | 0.0 | 0.00 | 0.00 | 0.00 | 75 | 1065.7 |
| 20260509050724 | 53 | 135 | 2.6 | 0.0 | 0.00 | 0.00 | 0.00 | 76 | 1065.7 |
| 20260509050611 | 53 | 135 | 3.5 | 0.0 | 0.00 | 0.00 | 0.00 | 76 | 1065.7 |
| 20260509050506 | 53 | 112 | 2.6 | 0.0 | 0.00 | 0.00 | 0.00 | 76 | 1065.6 |
| 20260509050401 | 52 | 135 | 5.2 | 0.0 | 0.00 | 0.00 | 0.00 | 76 | 1065.6 |
| 20260509050255 | 52 | 135 | 2.6 | 0.0 | 0.00 | 0.00 | 0.00 | 76 | 1065.6 |
| 20260509050149 | 52 | 112 | 3.5 | 0.0 | 0.00 | 0.00 | 0.00 | 76 | 1065.6 |
| 20260509050034 | 52 | 135 | 5.2 | 0.0 | 0.00 | 0.00 | 0.00 | 77 | 1065.6 |
| 20260509045913 | 52 | 135 | 5.2 | 0.0 | 0.00 | 0.00 | 0.00 | 77 | 1065.6 |
| 20260509045806 | 52 | 135 | 5.2 | 0.0 | 0.00 | 0.00 | 0.00 | 77 | 1065.5 |
| 20260509045652 | 52 | 135 | 3.5 | 0.0 | 0.00 | 0.00 | 0.00 | 78 | 1065.6 |
| 20260509045546 | 52 | 135 | 3.5 | 0.0 | 0.00 | 0.00 | 0.00 | 78 | 1065.6 |
| 20260509045426 | 52 | 135 | 3.5 | 0.0 | 0.00 | 0.00 | 0.00 | 78 | 1065.6 |
| 20260509045320 | 52 | 135 | 2.6 | 0.0 | 0.00 | 0.00 | 0.00 | 79 | 1065.6 |
| 20260509045206 | 51 | 112 | 2.6 | 0.0 | 0.00 | 0.00 | 0.00 | 79 | 1065.6 |
| 20260509045052 | 51 | 112 | 3.5 | 0.0 | 0.00 | 0.00 | 0.00 | 79 | 1065.5 |
| 20260509044934 | 51 | 135 | 2.6 | 0.0 | 0.00 | 0.00 | 0.00 | 80 | 1065.6 |
| 20260509044819 | 51 | 135 | 2.6 | 0.0 | 0.00 | 0.00 | 0.00 | 80 | 1065.6 |
| 20260509044706 | 51 | 135 | 4.3 | 0.0 | 0.00 | 0.00 | 0.00 | 81 | 1065.6 |
| 20260509044600 | 51 | 135 | 2.6 | 0.0 | 0.00 | 0.00 | 0.00 | 81 | 1065.6 |
| 20260509044447 | 50 | 135 | 1.7 | 0.0 | 0.00 | 0.00 | 0.00 | 82 | 1065.6 |
| 20260509044342 | 50 | 135 | 1.7 | 0.0 | 0.00 | 0.00 | 0.00 | 82 | 1065.6 |
| 20260509044235 | 50 | 135 | 2.6 | 0.0 | 0.00 | 0.00 | 0.00 | 82 | 1065.6 |
| 20260509044114 | 49 | 135 | 2.6 | 0.0 | 0.00 | 0.00 | 0.00 | 83 | 1065.6 |
| 20260509044000 | 49 | 135 | 4.3 | 0.0 | 0.00 | 0.00 | 0.00 | 83 | 1065.5 |
| 20260509043845 | 49 | 135 | 4.3 | 0.0 | 0.00 | 0.00 | 0.00 | 84 | 1065.6 |
| 20260509043726 | 49 | 112 | 2.6 | 0.0 | 0.00 | 0.00 | 0.00 | 84 | 1065.6 |
| 20260509043618 | 48 | 135 | 0.9 | 0.0 | 0.00 | 0.00 | 0.00 | 84 | 1065.6 |
| 20260509043505 | 48 | 135 | 3.5 | 0.0 | 0.00 | 0.00 | 0.00 | 85 | 1065.6 |
| 20260509043359 | 48 | 112 | 3.5 | 0.0 | 0.00 | 0.00 | 0.00 | 85 | 1065.6 |
| 20260509043232 | 48 | 135 | 2.6 | 0.0 | 0.00 | 0.00 | 0.00 | 85 | 1065.6 |
| 20260509043127 | 48 | 135 | 3.5 | 0.0 | 0.00 | 0.00 | 0.00 | 86 | 1065.5 |
| 20260509043020 | 47 | 135 | 4.3 | 0.0 | 0.00 | 0.00 | 0.00 | 86 | 1065.6 |
| 20260509042859 | 47 | 135 | 2.6 | 0.0 | 0.00 | 0.00 | 0.00 | 86 | 1065.6 |
| 20260509042747 | 47 | 135 | 3.5 | 0.0 | 0.00 | 0.00 | 0.00 | 86 | 1065.5 |
| 20260509042641 | 47 | 135 | 5.2 | 0.0 | 0.00 | 0.00 | 0.00 | 86 | 1065.6 |
| 20260509042519 | 47 | 135 | 4.3 | 0.0 | 0.00 | 0.00 | 0.00 | 87 | 1065.5 |
| 20260509042351 | 47 | 135 | 3.5 | 0.0 | 0.00 | 0.00 | 0.00 | 87 | 1065.6 |
| 20260509042245 | 46 | 135 | 3.5 | 0.0 | 0.00 | 0.00 | 0.00 | 87 | 1065.5 |
| 20260509042132 | 46 | 135 | 1.7 | 0.0 | 0.00 | 0.00 | 0.00 | 87 | 1065.5 |
| 20260509042021 | 46 | 135 | 3.5 | 0.0 | 0.00 | 0.00 | 0.00 | 87 | 1065.5 |
| 20260509041914 | 46 | 135 | 4.3 | 0.0 | 0.00 | 0.00 | 0.00 | 87 | 1065.6 |
| 20260509041753 | 46 | 112 | 3.5 | 0.0 | 0.00 | 0.00 | 0.00 | 87 | 1065.5 |
| 20260509041640 | 46 | 135 | 3.5 | 0.0 | 0.00 | 0.00 | 0.00 | 88 | 1065.6 |
| 20260509041526 | 46 | 135 | 1.7 | 0.0 | 0.00 | 0.00 | 0.00 | 88 | 1065.6 |
| 20260509041412 | 46 | 135 | 0.9 | 0.0 | 0.00 | 0.00 | 0.00 | 88 | 1065.6 |
| 20260509041259 | 46 | 135 | 3.5 | 0.0 | 0.00 | 0.00 | 0.00 | 88 | 1065.6 |
| 20260509041147 | 46 | 135 | 1.7 | 0.0 | 0.00 | 0.00 | 0.00 | 88 | 1065.7 |
| 20260509041034 | 45 | 135 | 3.5 | 0.0 | 0.00 | 0.00 | 0.00 | 88 | 1065.6 |
| 20260509040920 | 45 | 135 | 2.6 | 0.0 | 0.00 | 0.00 | 0.00 | 88 | 1065.7 |
| 20260509040759 | 45 | 135 | 2.6 | 0.0 | 0.00 | 0.00 | 0.00 | 88 | 1065.7 |
| 20260509040646 | 45 | 135 | 2.6 | 0.0 | 0.00 | 0.00 | 0.00 | 88 | 1065.7 |
| 20260509040525 | 45 | 135 | 2.6 | 0.0 | 0.00 | 0.00 | 0.00 | 88 | 1065.7 |
| 20260509040404 | 45 | 135 | 0.0 | 0.0 | 0.00 | 0.00 | 0.00 | 87 | 1065.7 |
| 20260509040251 | 45 | 135 | 1.7 | 0.0 | 0.00 | 0.00 | 0.00 | 87 | 1065.7 |
| 20260509040137 | 45 | 157 | 1.7 | 0.0 | 0.00 | 0.00 | 0.00 | 87 | 1065.7 |
| 20260509040024 | 45 | 135 | 0.0 | 0.0 | 0.00 | 0.00 | 0.00 | 87 | 1065.7 |
| 20260509035905 | 45 | 157 | 0.0 | 0.0 | 0.00 | 0.00 | 0.00 | 87 | 1065.7 |
| 20260509035749 | 45 | 157 | 1.7 | 0.0 | 0.00 | 0.00 | 0.00 | 87 | 1065.7 |
| 20260509035636 | 45 | 135 | 0.0 | 0.0 | 0.00 | 0.00 | 0.00 | 87 | 1065.7 |
| 20260509035517 | 45 | 135 | 0.0 | 0.0 | 0.00 | 0.00 | 0.00 | 87 | 1065.8 |
| 20260509035412 | 45 | 135 | 0.0 | 0.0 | 0.00 | 0.00 | 0.00 | 87 | 1065.7 |
| 20260509035257 | 45 | 135 | 0.0 | 0.0 | 0.00 | 0.00 | 0.00 | 87 | 1065.8 |
| 20260509035145 | 45 | 135 | 0.0 | 0.0 | 0.00 | 0.00 | 0.00 | 87 | 1065.8 |
| 20260509035039 | 45 | 135 | 0.0 | 0.0 | 0.00 | 0.00 | 0.00 | 87 | 1065.7 |
| 20260509034934 | 45 | 135 | 0.0 | 0.0 | 0.00 | 0.00 | 0.00 | 87 | 1065.8 |
| 20260509034827 | 45 | 135 | 3.5 | 0.0 | 0.00 | 0.00 | 0.00 | 87 | 1065.8 |
| 20260509034713 | 45 | 135 | 0.0 | 0.0 | 0.00 | 0.00 | 0.00 | 87 | 1065.8 |
| 20260509034601 | 45 | 135 | 0.0 | 0.0 | 0.00 | 0.00 | 0.00 | 87 | 1065.7 |
| 20260509034448 | 45 | 135 | 0.0 | 0.0 | 0.00 | 0.00 | 0.00 | 87 | 1065.8 |
| 20260509034342 | 45 | 135 | 0.0 | 0.0 | 0.00 | 0.00 | 0.00 | 87 | 1065.7 |
| 20260509034221 | 44 | 135 | 0.0 | 0.0 | 0.00 | 0.00 | 0.00 | 86 | 1065.7 |
| 20260509034108 | 45 | 135 | 0.0 | 0.0 | 0.00 | 0.00 | 0.00 | 86 | 1065.7 |
| 20260509033947 | 45 | 135 | 1.7 | 0.0 | 0.00 | 0.00 | 0.00 | 86 | 1065.8 |
| 20260509033842 | 44 | 135 | 0.0 | 0.0 | 0.00 | 0.00 | 0.00 | 86 | 1065.7 |
| 20260509033720 | 45 | 135 | 0.0 | 0.0 | 0.00 | 0.00 | 0.00 | 86 | 1065.7 |
| 20260509033600 | 45 | 135 | 0.0 | 0.0 | 0.00 | 0.00 | 0.00 | 86 | 1065.7 |
| 20260509033454 | 45 | 135 | 0.0 | 0.0 | 0.00 | 0.00 | 0.00 | 86 | 1065.7 |
| 20260509033349 | 45 | 135 | 0.0 | 0.0 | 0.00 | 0.00 | 0.00 | 86 | 1065.7 |
| 20260509033238 | 45 | 135 | 0.0 | 0.0 | 0.00 | 0.00 | 0.00 | 86 | 1065.7 |
| 20260509033130 | 45 | 135 | 0.0 | 0.0 | 0.00 | 0.00 | 0.00 | 86 | 1065.7 |
| 20260509033010 | 45 | 135 | 0.0 | 0.0 | 0.00 | 0.00 | 0.00 | 86 | 1065.7 |
| 20260509032905 | 45 | 135 | 0.0 | 0.0 | 0.00 | 0.00 | 0.00 | 86 | 1065.7 |
| 20260509032752 | 45 | 135 | 0.0 | 0.0 | 0.00 | 0.00 | 0.00 | 86 | 1065.7 |
| 20260509032630 | 45 | 135 | 0.0 | 0.0 | 0.00 | 0.00 | 0.00 | 86 | 1065.7 |
| 20260509032509 | 45 | 135 | 2.6 | 0.0 | 0.00 | 0.00 | 0.00 | 86 | 1065.7 |
| 20260509032348 | 45 | 135 | 0.0 | 0.0 | 0.00 | 0.00 | 0.00 | 86 | 1065.7 |
| 20260509032243 | 45 | 135 | 0.9 | 0.0 | 0.00 | 0.00 | 0.00 | 86 | 1065.6 |
| 20260509032138 | 45 | 135 | 0.0 | 0.0 | 0.00 | 0.00 | 0.00 | 85 | 1065.7 |
| 20260509032016 | 45 | 135 | 0.0 | 0.0 | 0.00 | 0.00 | 0.00 | 85 | 1065.6 |
| 20260509031903 | 45 | 135 | 1.7 | 0.0 | 0.00 | 0.00 | 0.00 | 85 | 1065.6 |
| 20260509031751 | 45 | 135 | 0.0 | 0.0 | 0.00 | 0.00 | 0.00 | 85 | 1065.7 |
| 20260509031645 | 45 | 135 | 1.7 | 0.0 | 0.00 | 0.00 | 0.00 | 85 | 1065.7 |
| 20260509031532 | 46 | 135 | 3.5 | 0.0 | 0.00 | 0.00 | 0.00 | 85 | 1065.6 |
| 20260509031419 | 46 | 135 | 0.0 | 0.0 | 0.00 | 0.00 | 0.00 | 85 | 1065.7 |
| 20260509031315 | 46 | 135 | 0.0 | 0.0 | 0.00 | 0.00 | 0.00 | 85 | 1065.6 |
| 20260509031210 | 46 | 135 | 1.7 | 0.0 | 0.00 | 0.00 | 0.00 | 85 | 1065.7 |
| 20260509031104 | 46 | 135 | 0.9 | 0.0 | 0.00 | 0.00 | 0.00 | 86 | 1065.7 |
| 20260509030951 | 46 | 135 | 0.0 | 0.0 | 0.00 | 0.00 | 0.00 | 86 | 1065.7 |
| 20260509030846 | 46 | 135 | 0.0 | 0.0 | 0.00 | 0.00 | 0.00 | 86 | 1065.7 |
| 20260509030725 | 46 | 135 | 0.9 | 0.0 | 0.00 | 0.00 | 0.00 | 86 | 1065.7 |
| 20260509030612 | 46 | 135 | 3.5 | 0.0 | 0.00 | 0.00 | 0.00 | 86 | 1065.7 |
| 20260509030507 | 46 | 157 | 1.7 | 0.0 | 0.00 | 0.00 | 0.00 | 86 | 1065.7 |
| 20260509030402 | 46 | 157 | 2.6 | 0.0 | 0.00 | 0.00 | 0.00 | 86 | 1065.6 |
| 20260509030256 | 46 | 157 | 0.0 | 0.0 | 0.00 | 0.00 | 0.00 | 86 | 1065.7 |
| 20260509030145 | 46 | 157 | 0.0 | 0.0 | 0.00 | 0.00 | 0.00 | 86 | 1065.7 |
| 20260509030032 | 46 | 157 | 3.5 | 0.0 | 0.00 | 0.00 | 0.00 | 86 | 1065.7 |
| 20260509025917 | 46 | 157 | 2.6 | 0.0 | 0.00 | 0.00 | 0.00 | 86 | 1065.7 |
| 20260509025805 | 46 | 157 | 3.5 | 0.0 | 0.00 | 0.00 | 0.00 | 86 | 1065.7 |
| 20260509025700 | 46 | 157 | 3.5 | 0.0 | 0.00 | 0.00 | 0.00 | 86 | 1065.7 |
| 20260509025554 | 46 | 157 | 3.5 | 0.0 | 0.00 | 0.00 | 0.00 | 86 | 1065.8 |
| 20260509025449 | 46 | 135 | 3.5 | 0.0 | 0.00 | 0.00 | 0.00 | 86 | 1065.7 |
| 20260509025328 | 46 | 135 | 4.3 | 0.0 | 0.00 | 0.00 | 0.00 | 86 | 1065.7 |
| 20260509025215 | 46 | 135 | 3.5 | 0.0 | 0.00 | 0.00 | 0.00 | 86 | 1065.8 |
| 20260509025102 | 47 | 135 | 4.3 | 0.0 | 0.00 | 0.00 | 0.00 | 86 | 1065.7 |
| 20260509024948 | 46 | 157 | 4.3 | 0.0 | 0.00 | 0.00 | 0.00 | 86 | 1065.8 |
| 20260509024820 | 46 | 135 | 3.5 | 0.0 | 0.00 | 0.00 | 0.00 | 86 | 1065.8 |
| 20260509024714 | 46 | 157 | 3.5 | 0.0 | 0.00 | 0.00 | 0.00 | 86 | 1065.9 |
| 20260509024609 | 46 | 157 | 4.3 | 0.0 | 0.00 | 0.00 | 0.00 | 86 | 1065.9 |
| 20260509024504 | 46 | 135 | 2.6 | 0.0 | 0.00 | 0.00 | 0.00 | 86 | 1065.8 |
| 20260509024351 | 46 | 157 | 0.0 | 0.0 | 0.00 | 0.00 | 0.00 | 86 | 1065.9 |
| 20260509024232 | 46 | 157 | 1.7 | 0.0 | 0.00 | 0.00 | 0.00 | 86 | 1065.9 |
| 20260509024125 | 46 | 157 | 1.7 | 0.0 | 0.00 | 0.00 | 0.00 | 86 | 1066.0 |
| 20260509024012 | 47 | 157 | 4.3 | 0.0 | 0.00 | 0.00 | 0.00 | 85 | 1065.9 |
| 20260509023906 | 47 | 157 | 3.5 | 0.0 | 0.00 | 0.00 | 0.00 | 86 | 1065.9 |
| 20260509023747 | 47 | 157 | 3.5 | 0.0 | 0.00 | 0.00 | 0.00 | 85 | 1065.9 |
| 20260509023634 | 47 | 157 | 1.7 | 0.0 | 0.00 | 0.00 | 0.00 | 86 | 1065.8 |
| 20260509023526 | 47 | 135 | 2.6 | 0.0 | 0.00 | 0.00 | 0.00 | 86 | 1065.9 |
| 20260509023416 | 47 | 157 | 0.9 | 0.0 | 0.00 | 0.00 | 0.00 | 86 | 1065.8 |
| 20260509023309 | 47 | 135 | 1.7 | 0.0 | 0.00 | 0.00 | 0.00 | 86 | 1065.8 |
| 20260509023155 | 47 | 135 | 1.7 | 0.0 | 0.00 | 0.00 | 0.00 | 86 | 1065.9 |
| 20260509023027 | 47 | 135 | 1.7 | 0.0 | 0.00 | 0.00 | 0.00 | 85 | 1065.9 |
| 20260509022922 | 47 | 157 | 1.7 | 0.0 | 0.00 | 0.00 | 0.00 | 85 | 1065.8 |
| 20260509022816 | 47 | 135 | 4.3 | 0.0 | 0.00 | 0.00 | 0.00 | 85 | 1065.9 |
| 20260509022647 | 47 | 135 | 3.5 | 0.0 | 0.00 | 0.00 | 0.00 | 86 | 1065.8 |
| 20260509022534 | 47 | 135 | 1.7 | 0.0 | 0.00 | 0.00 | 0.00 | 86 | 1065.9 |
| 20260509022421 | 47 | 135 | 2.6 | 0.0 | 0.00 | 0.00 | 0.00 | 86 | 1065.8 |
| 20260509022308 | 47 | 157 | 3.5 | 0.0 | 0.00 | 0.00 | 0.00 | 86 | 1065.8 |
| 20260509022146 | 47 | 135 | 2.6 | 0.0 | 0.00 | 0.00 | 0.00 | 86 | 1065.8 |
| 20260509022033 | 47 | 135 | 3.5 | 0.0 | 0.00 | 0.00 | 0.00 | 86 | 1065.8 |
| 20260509021912 | 47 | 135 | 1.7 | 0.0 | 0.00 | 0.00 | 0.00 | 86 | 1065.8 |
| 20260509021759 | 47 | 157 | 4.3 | 0.0 | 0.00 | 0.00 | 0.00 | 86 | 1065.9 |
| 20260509021638 | 47 | 135 | 2.6 | 0.0 | 0.00 | 0.00 | 0.00 | 86 | 1065.9 |
| 20260509021527 | 47 | 135 | 5.2 | 0.0 | 0.00 | 0.00 | 0.00 | 86 | 1065.8 |
| 20260509021419 | 47 | 157 | 5.2 | 0.0 | 0.00 | 0.00 | 0.00 | 86 | 1065.8 |
| 20260509021306 | 46 | 157 | 3.5 | 0.0 | 0.00 | 0.00 | 0.00 | 86 | 1065.8 |
| 20260509021145 | 46 | 135 | 4.3 | 0.0 | 0.00 | 0.00 | 0.00 | 86 | 1065.8 |
| 20260509021035 | 46 | 157 | 1.7 | 0.0 | 0.00 | 0.00 | 0.00 | 86 | 1065.8 |
| 20260509020927 | 47 | 135 | 0.9 | 0.0 | 0.00 | 0.00 | 0.00 | 86 | 1065.8 |
| 20260509020814 | 46 | 157 | 1.7 | 0.0 | 0.00 | 0.00 | 0.00 | 86 | 1065.9 |
| 20260509020701 | 46 | 157 | 3.5 | 0.0 | 0.00 | 0.00 | 0.00 | 86 | 1065.8 |
| 20260509020556 | 46 | 135 | 1.7 | 0.0 | 0.00 | 0.00 | 0.00 | 86 | 1065.8 |
| 20260509020445 | 46 | 135 | 0.9 | 0.0 | 0.00 | 0.00 | 0.00 | 86 | 1065.8 |
| 20260509020338 | 46 | 135 | 4.3 | 0.0 | 0.00 | 0.00 | 0.00 | 86 | 1065.9 |
| 20260509020224 | 47 | 135 | 1.7 | 0.0 | 0.00 | 0.00 | 0.00 | 86 | 1065.9 |
| 20260509020112 | 47 | 135 | 0.0 | 0.0 | 0.00 | 0.00 | 0.00 | 86 | 1065.9 |
| 20260509015952 | 47 | 112 | 0.0 | 0.0 | 0.00 | 0.00 | 0.00 | 86 | 1065.9 |
| 20260509015846 | 46 | 135 | 0.0 | 0.0 | 0.00 | 0.00 | 0.00 | 86 | 1065.9 |
| 20260509015734 | 46 | 135 | 0.0 | 0.0 | 0.00 | 0.00 | 0.00 | 86 | 1065.9 |
| 20260509015627 | 46 | 135 | 3.5 | 0.0 | 0.00 | 0.00 | 0.00 | 86 | 1065.9 |
| 20260509015514 | 46 | 135 | 0.9 | 0.0 | 0.00 | 0.00 | 0.00 | 86 | 1065.9 |
| 20260509015401 | 46 | 135 | 4.3 | 0.0 | 0.00 | 0.00 | 0.00 | 86 | 1065.9 |
| 20260509015256 | 46 | 135 | 1.7 | 0.0 | 0.00 | 0.00 | 0.00 | 86 | 1065.9 |
| 20260509015135 | 46 | 135 | 0.0 | 0.0 | 0.00 | 0.00 | 0.00 | 86 | 1065.9 |
| 20260509015022 | 46 | 135 | 0.0 | 0.0 | 0.00 | 0.00 | 0.00 | 86 | 1065.9 |
| 20260509014919 | 46 | 135 | 0.0 | 0.0 | 0.00 | 0.00 | 0.00 | 86 | 1065.9 |
| 20260509014812 | 46 | 157 | 3.5 | 0.0 | 0.00 | 0.00 | 0.00 | 86 | 1065.9 |
| 20260509014659 | 46 | 135 | 2.6 | 0.0 | 0.00 | 0.00 | 0.00 | 86 | 1065.9 |
| 20260509014546 | 46 | 135 | 2.6 | 0.0 | 0.00 | 0.00 | 0.00 | 86 | 1065.8 |
| 20260509014433 | 46 | 135 | 1.7 | 0.0 | 0.00 | 0.00 | 0.00 | 86 | 1065.9 |
| 20260509014327 | 46 | 135 | 0.0 | 0.0 | 0.00 | 0.00 | 0.00 | 86 | 1065.9 |
| 20260509014206 | 46 | 157 | 3.5 | 0.0 | 0.00 | 0.00 | 0.00 | 86 | 1065.9 |
| 20260509014053 | 46 | 135 | 3.5 | 0.0 | 0.00 | 0.00 | 0.00 | 86 | 1065.8 |
| 20260509013940 | 46 | 157 | 4.3 | 0.0 | 0.00 | 0.00 | 0.00 | 86 | 1065.8 |
| 20260509013827 | 46 | 135 | 3.5 | 0.0 | 0.00 | 0.00 | 0.00 | 86 | 1065.9 |
| 20260509013722 | 46 | 157 | 0.9 | 0.0 | 0.00 | 0.00 | 0.00 | 86 | 1065.9 |
| 20260509013617 | 46 | 157 | 2.6 | 0.0 | 0.00 | 0.00 | 0.00 | 86 | 1065.9 |
| 20260509013512 | 46 | 157 | 0.0 | 0.0 | 0.00 | 0.00 | 0.00 | 85 | 1065.8 |
| 20260509013406 | 46 | 135 | 2.6 | 0.0 | 0.00 | 0.00 | 0.00 | 85 | 1065.8 |
| 20260509013247 | 46 | 157 | 0.0 | 0.0 | 0.00 | 0.00 | 0.00 | 85 | 1065.8 |
| 20260509013132 | 46 | 157 | 0.0 | 0.0 | 0.00 | 0.00 | 0.00 | 85 | 1065.8 |
| 20260509013019 | 46 | 157 | 0.0 | 0.0 | 0.00 | 0.00 | 0.00 | 85 | 1065.8 |
| 20260509012915 | 46 | 157 | 0.0 | 0.0 | 0.00 | 0.00 | 0.00 | 85 | 1065.7 |
| 20260509012809 | 46 | 157 | 2.6 | 0.0 | 0.00 | 0.00 | 0.00 | 85 | 1065.6 |
| 20260509012648 | 46 | 157 | 0.0 | 0.0 | 0.00 | 0.00 | 0.00 | 85 | 1065.8 |
| 20260509012535 | 46 | 157 | 0.9 | 0.0 | 0.00 | 0.00 | 0.00 | 85 | 1065.8 |
| 20260509012422 | 46 | 135 | 0.0 | 0.0 | 0.00 | 0.00 | 0.00 | 85 | 1065.7 |
| 20260509012308 | 46 | 135 | 0.0 | 0.0 | 0.00 | 0.00 | 0.00 | 85 | 1065.7 |
| 20260509012155 | 46 | 135 | 0.0 | 0.0 | 0.00 | 0.00 | 0.00 | 85 | 1065.7 |
| 20260509012042 | 46 | 135 | 0.0 | 0.0 | 0.00 | 0.00 | 0.00 | 85 | 1065.7 |
| 20260509011929 | 46 | 135 | 0.0 | 0.0 | 0.00 | 0.00 | 0.00 | 85 | 1065.6 |
| 20260509011825 | 46 | 135 | 0.0 | 0.0 | 0.00 | 0.00 | 0.00 | 85 | 1065.7 |
| 20260509011720 | 46 | 135 | 1.7 | 0.0 | 0.00 | 0.00 | 0.00 | 85 | 1065.8 |
| 20260509011614 | 46 | 135 | 0.0 | 0.0 | 0.00 | 0.00 | 0.00 | 85 | 1065.6 |
| 20260509011510 | 46 | 135 | 2.6 | 0.0 | 0.00 | 0.00 | 0.00 | 85 | 1065.7 |
| 20260509011407 | 46 | 157 | 0.9 | 0.0 | 0.00 | 0.00 | 0.00 | 85 | 1065.7 |
| 20260509011259 | 46 | 157 | 0.0 | 0.0 | 0.00 | 0.00 | 0.00 | 85 | 1065.7 |
| 20260509011137 | 46 | 157 | 0.0 | 0.0 | 0.00 | 0.00 | 0.00 | 85 | 1065.8 |
| 20260509011017 | 46 | 157 | 0.0 | 0.0 | 0.00 | 0.00 | 0.00 | 85 | 1065.8 |
| 20260509010905 | 46 | 135 | 0.0 | 0.0 | 0.00 | 0.00 | 0.00 | 85 | 1065.8 |
| 20260509010801 | 46 | 135 | 0.0 | 0.0 | 0.00 | 0.00 | 0.00 | 85 | 1065.8 |
| 20260509010647 | 46 | 135 | 0.0 | 0.0 | 0.00 | 0.00 | 0.00 | 85 | 1065.8 |
| 20260509010533 | 46 | 135 | 0.0 | 0.0 | 0.00 | 0.00 | 0.00 | 85 | 1065.7 |
| 20260509010428 | 46 | 157 | 1.7 | 0.0 | 0.00 | 0.00 | 0.00 | 85 | 1065.8 |
| 20260509010314 | 46 | 157 | 2.6 | 0.0 | 0.00 | 0.00 | 0.00 | 85 | 1065.9 |
| 20260509005918 | 46 | 135 | 1.7 | 0.0 | 0.00 | 0.00 | 0.00 | 85 | 1065.9 |
| 20260509005801 | 46 | 157 | 4.3 | 0.0 | 0.00 | 0.00 | 0.00 | 85 | 1065.8 |
| 20260509005645 | 46 | 135 | 1.7 | 0.0 | 0.00 | 0.00 | 0.00 | 85 | 1065.8 |
| 20260509005539 | 46 | 135 | 4.3 | 0.0 | 0.00 | 0.00 | 0.00 | 85 | 1065.8 |
| 20260509005434 | 46 | 135 | 3.5 | 0.0 | 0.00 | 0.00 | 0.00 | 84 | 1065.8 |
| 20260509005306 | 46 | 135 | 3.5 | 0.0 | 0.00 | 0.00 | 0.00 | 84 | 1065.8 |
| 20260509005152 | 46 | 135 | 2.6 | 0.0 | 0.00 | 0.00 | 0.00 | 84 | 1065.8 |
| 20260509005047 | 46 | 135 | 3.5 | 0.0 | 0.00 | 0.00 | 0.00 | 84 | 1065.9 |
| 20260509004942 | 46 | 135 | 0.0 | 0.0 | 0.00 | 0.00 | 0.00 | 84 | 1065.7 |
| 20260509004837 | 46 | 135 | 0.0 | 0.0 | 0.00 | 0.00 | 0.00 | 84 | 1065.8 |
| 20260509004732 | 46 | 135 | 0.0 | 0.0 | 0.00 | 0.00 | 0.00 | 84 | 1065.7 |
| 20260509004627 | 46 | 135 | 0.0 | 0.0 | 0.00 | 0.00 | 0.00 | 84 | 1065.7 |
| 20260509004522 | 46 | 135 | 0.0 | 0.0 | 0.00 | 0.00 | 0.00 | 84 | 1065.8 |
| 20260509004416 | 46 | 135 | 0.0 | 0.0 | 0.00 | 0.00 | 0.00 | 84 | 1065.7 |
| 20260509004303 | 46 | 135 | 0.9 | 0.0 | 0.00 | 0.00 | 0.00 | 84 | 1065.6 |
| 20260509004151 | 46 | 135 | 0.0 | 0.0 | 0.00 | 0.00 | 0.00 | 84 | 1065.5 |
| 20260509004047 | 46 | 135 | 0.0 | 0.0 | 0.00 | 0.00 | 0.00 | 83 | 1065.6 |
| 20260509003939 | 46 | 135 | 0.0 | 0.0 | 0.00 | 0.00 | 0.00 | 83 | 1065.6 |
| 20260509003818 | 46 | 135 | 0.0 | 0.0 | 0.00 | 0.00 | 0.00 | 83 | 1065.5 |
| 20260509003713 | 46 | 135 | 0.0 | 0.0 | 0.00 | 0.00 | 0.00 | 83 | 1065.6 |
| 20260509003606 | 46 | 135 | 0.0 | 0.0 | 0.00 | 0.00 | 0.00 | 83 | 1065.6 |
| 20260509003500 | 46 | 135 | 0.9 | 0.0 | 0.00 | 0.00 | 0.00 | 83 | 1065.6 |
| 20260509003345 | 46 | 135 | 3.5 | 0.0 | 0.00 | 0.00 | 0.00 | 83 | 1065.6 |
| 20260509003225 | 46 | 135 | 0.0 | 0.0 | 0.00 | 0.00 | 0.00 | 83 | 1065.6 |
| 20260509003120 | 46 | 157 | 0.0 | 0.0 | 0.00 | 0.00 | 0.00 | 83 | 1065.5 |
| 20260509003015 | 46 | 157 | 0.0 | 0.0 | 0.00 | 0.00 | 0.00 | 83 | 1065.6 |
| 20260509002902 | 46 | 135 | 0.0 | 0.0 | 0.00 | 0.00 | 0.00 | 83 | 1065.6 |
| 20260509002756 | 46 | 135 | 0.0 | 0.0 | 0.00 | 0.00 | 0.00 | 83 | 1065.6 |
| 20260509002651 | 46 | 135 | 1.7 | 0.0 | 0.00 | 0.00 | 0.00 | 83 | 1065.6 |
| 20260509002545 | 46 | 135 | 0.0 | 0.0 | 0.00 | 0.00 | 0.00 | 83 | 1065.6 |
| 20260509002440 | 46 | 135 | 0.0 | 0.0 | 0.00 | 0.00 | 0.00 | 83 | 1065.5 |
| 20260509002319 | 46 | 135 | 0.0 | 0.0 | 0.00 | 0.00 | 0.00 | 83 | 1065.5 |
| 20260509002207 | 46 | 135 | 1.7 | 0.0 | 0.00 | 0.00 | 0.00 | 82 | 1065.5 |
| 20260509002102 | 46 | 135 | 0.0 | 0.0 | 0.00 | 0.00 | 0.00 | 82 | 1065.5 |
| 20260509001955 | 46 | 135 | 0.0 | 0.0 | 0.00 | 0.00 | 0.00 | 82 | 1065.5 |
| 20260509001850 | 46 | 135 | 0.0 | 0.0 | 0.00 | 0.00 | 0.00 | 82 | 1065.6 |
| 20260509001728 | 46 | 135 | 0.0 | 0.0 | 0.00 | 0.00 | 0.00 | 82 | 1065.5 |
| 20260509001608 | 46 | 135 | 0.0 | 0.0 | 0.00 | 0.00 | 0.00 | 82 | 1065.5 |
| 20260509001455 | 46 | 135 | 0.0 | 0.0 | 0.00 | 0.00 | 0.00 | 82 | 1065.5 |
| 20260509001349 | 46 | 135 | 0.0 | 0.0 | 0.00 | 0.00 | 0.00 | 82 | 1065.5 |
| 20260509001244 | 46 | 135 | 0.0 | 0.0 | 0.00 | 0.00 | 0.00 | 82 | 1065.5 |
| 20260509001124 | 46 | 135 | 0.0 | 0.0 | 0.00 | 0.00 | 0.00 | 82 | 1065.5 |
| 20260509001018 | 46 | 135 | 1.7 | 0.0 | 0.00 | 0.00 | 0.00 | 82 | 1065.4 |
| 20260509000856 | 46 | 112 | 2.6 | 0.0 | 0.00 | 0.00 | 0.00 | 82 | 1065.5 |
| 20260509000736 | 46 | 135 | 0.0 | 0.0 | 0.00 | 0.00 | 0.00 | 82 | 1065.5 |
| 20260509000630 | 46 | 135 | 0.0 | 0.0 | 0.00 | 0.00 | 0.00 | 82 | 1065.5 |
| 20260509000518 | 46 | 135 | 2.6 | 0.0 | 0.00 | 0.00 | 0.00 | 82 | 1065.5 |
| 20260509000403 | 46 | 135 | 0.9 | 0.0 | 0.00 | 0.00 | 0.00 | 82 | 1065.5 |
| 20260509000243 | 46 | 135 | 2.6 | 0.0 | 0.00 | 0.00 | 0.00 | 82 | 1065.5 |
| 20260509000130 | 46 | 135 | 1.7 | 0.0 | 0.00 | 0.00 | 0.00 | 82 | 1065.5 |
| 20260509000017 | 46 | 135 | 1.7 | 0.0 | 0.00 | 0.00 | 0.00 | 82 | 1065.5 |
| 20260508235912 | 46 | 135 | 2.6 | 0.0 | 0.00 | 0.00 | 0.00 | 82 | 1065.4 |
| 20260508235807 | 46 | 112 | 3.5 | 0.0 | 0.00 | 0.00 | 0.00 | 82 | 1065.5 |
| 20260508235702 | 46 | 135 | 5.2 | 0.0 | 0.00 | 0.00 | 0.00 | 82 | 1065.5 |
| 20260508235550 | 46 | 135 | 1.7 | 0.0 | 0.00 | 0.00 | 0.00 | 82 | 1065.5 |
| 20260508235443 | 46 | 135 | 2.6 | 0.0 | 0.00 | 0.00 | 0.00 | 82 | 1065.5 |
| 20260508235330 | 46 | 135 | 2.6 | 0.0 | 0.00 | 0.00 | 0.00 | 82 | 1065.5 |
| 20260508235154 | 46 | 135 | 4.3 | 0.0 | 0.00 | 0.00 | 0.00 | 82 | 1065.5 |
| 20260508235040 | 46 | 135 | 4.3 | 0.0 | 0.00 | 0.00 | 0.00 | 82 | 1065.5 |
| 20260508234927 | 46 | 135 | 3.5 | 0.0 | 0.00 | 0.00 | 0.00 | 82 | 1065.5 |
| 20260508234821 | 46 | 112 | 0.9 | 0.0 | 0.00 | 0.00 | 0.00 | 82 | 1065.5 |
| 20260508234652 | 46 | 112 | 4.3 | 0.0 | 0.00 | 0.00 | 0.00 | 82 | 1065.5 |
| 20260508234540 | 46 | 112 | 0.0 | 0.0 | 0.00 | 0.00 | 0.00 | 82 | 1065.6 |
| 20260508234419 | 46 | 112 | 1.7 | 0.0 | 0.00 | 0.00 | 0.00 | 82 | 1065.5 |
| 20260508234305 | 46 | 112 | 3.5 | 0.0 | 0.00 | 0.00 | 0.00 | 82 | 1065.7 |
| 20260508234152 | 46 | 135 | 0.9 | 0.0 | 0.00 | 0.00 | 0.00 | 82 | 1065.6 |
| 20260508234047 | 46 | 135 | 1.7 | 0.0 | 0.00 | 0.00 | 0.00 | 82 | 1065.6 |
| 20260508233942 | 46 | 112 | 3.5 | 0.0 | 0.00 | 0.00 | 0.00 | 82 | 1065.5 |
| 20260508233836 | 46 | 135 | 3.5 | 0.0 | 0.00 | 0.00 | 0.00 | 81 | 1065.5 |
| 20260508233707 | 46 | 135 | 4.3 | 0.0 | 0.00 | 0.00 | 0.00 | 81 | 1065.6 |
| 20260508233546 | 46 | 135 | 3.5 | 0.0 | 0.00 | 0.00 | 0.00 | 81 | 1065.5 |
| 20260508233426 | 46 | 112 | 0.0 | 0.0 | 0.00 | 0.00 | 0.00 | 81 | 1065.5 |
| 20260508233320 | 46 | 112 | 2.6 | 0.0 | 0.00 | 0.00 | 0.00 | 81 | 1065.5 |
| 20260508233207 | 46 | 112 | 2.6 | 0.0 | 0.00 | 0.00 | 0.00 | 80 | 1065.6 |
| 20260508233055 | 47 | 90 | 0.0 | 0.0 | 0.00 | 0.00 | 0.00 | 80 | 1065.6 |
| 20260508232932 | 47 | 90 | 0.0 | 0.0 | 0.00 | 0.00 | 0.00 | 80 | 1065.6 |
| 20260508232820 | 47 | 90 | 0.9 | 0.0 | 0.00 | 0.00 | 0.00 | 80 | 1065.6 |
| 20260508232658 | 47 | 112 | 0.0 | 0.0 | 0.00 | 0.00 | 0.00 | 80 | 1065.6 |
| 20260508232535 | 47 | 112 | 0.0 | 0.0 | 0.00 | 0.00 | 0.00 | 80 | 1065.6 |
| 20260508232417 | 47 | 112 | 0.0 | 0.0 | 0.00 | 0.00 | 0.00 | 79 | 1065.6 |
| 20260508232312 | 48 | 67 | 0.0 | 0.0 | 0.00 | 0.00 | 0.00 | 79 | 1065.6 |
| 20260508232157 | 48 | 67 | 0.0 | 0.0 | 0.00 | 0.00 | 0.00 | 80 | 1065.7 |
| 20260508232037 | 48 | 67 | 0.0 | 0.0 | 0.00 | 0.00 | 0.00 | 80 | 1065.7 |
| 20260508231933 | 48 | 67 | 0.0 | 0.0 | 0.00 | 0.00 | 0.00 | 80 | 1065.8 |
| 20260508231827 | 48 | 112 | 0.0 | 0.0 | 0.00 | 0.00 | 0.00 | 80 | 1065.7 |
| 20260508231723 | 48 | 112 | 0.0 | 0.0 | 0.00 | 0.00 | 0.00 | 80 | 1065.7 |
| 20260508231618 | 48 | 112 | 0.0 | 0.0 | 0.00 | 0.00 | 0.00 | 80 | 1065.7 |
| 20260508231504 | 48 | 112 | 1.7 | 0.0 | 0.00 | 0.00 | 0.00 | 79 | 1065.7 |
| 20260508231350 | 48 | 67 | 3.5 | 0.0 | 0.00 | 0.00 | 0.00 | 79 | 1065.6 |
| 20260508231237 | 48 | 90 | 3.5 | 0.0 | 0.00 | 0.00 | 0.00 | 79 | 1065.6 |
| 20260508231115 | 48 | 112 | 2.6 | 0.0 | 0.00 | 0.00 | 0.00 | 79 | 1065.6 |
| 20260508230955 | 48 | 112 | 1.7 | 0.0 | 0.00 | 0.00 | 0.00 | 79 | 1065.6 |
| 20260508230849 | 48 | 135 | 3.5 | 0.0 | 0.00 | 0.00 | 0.00 | 79 | 1065.6 |
| 20260508230729 | 48 | 112 | 1.7 | 0.0 | 0.00 | 0.00 | 0.00 | 79 | 1065.6 |
| 20260508230617 | 48 | 135 | 4.3 | 0.0 | 0.00 | 0.00 | 0.00 | 79 | 1065.6 |
| 20260508230502 | 48 | 135 | 2.6 | 0.0 | 0.00 | 0.00 | 0.00 | 79 | 1065.6 |
| 20260508230349 | 48 | 135 | 3.5 | 0.0 | 0.00 | 0.00 | 0.00 | 79 | 1065.6 |
| 20260508230230 | 48 | 135 | 3.5 | 0.0 | 0.00 | 0.00 | 0.00 | 79 | 1065.6 |
| 20260508230126 | 48 | 135 | 0.9 | 0.0 | 0.00 | 0.00 | 0.00 | 79 | 1065.6 |
| 20260508230017 | 48 | 135 | 2.6 | 0.0 | 0.00 | 0.00 | 0.00 | 79 | 1065.5 |
| 20260508225904 | 48 | 135 | 3.5 | 0.0 | 0.00 | 0.00 | 0.00 | 79 | 1065.5 |
| 20260508225754 | 48 | 135 | 4.3 | 0.0 | 0.00 | 0.00 | 0.00 | 80 | 1065.6 |
| 20260508225639 | 48 | 135 | 5.2 | 0.0 | 0.00 | 0.00 | 0.00 | 80 | 1065.5 |
| 20260508225534 | 48 | 135 | 1.7 | 0.0 | 0.00 | 0.00 | 0.00 | 80 | 1065.5 |
| 20260508225431 | 48 | 135 | 1.7 | 0.0 | 0.00 | 0.00 | 0.00 | 80 | 1065.6 |
| 20260508225325 | 48 | 135 | 1.7 | 0.0 | 0.00 | 0.00 | 0.00 | 80 | 1065.5 |
| 20260508225218 | 48 | 135 | 2.6 | 0.0 | 0.00 | 0.00 | 0.00 | 81 | 1065.6 |
| 20260508225057 | 48 | 112 | 1.7 | 0.0 | 0.00 | 0.00 | 0.00 | 81 | 1065.5 |
| 20260508224935 | 48 | 135 | 3.5 | 0.0 | 0.00 | 0.00 | 0.00 | 81 | 1065.5 |
| 20260508224814 | 48 | 112 | 4.3 | 0.0 | 0.00 | 0.00 | 0.00 | 81 | 1065.5 |
| 20260508224702 | 48 | 112 | 2.6 | 0.0 | 0.00 | 0.00 | 0.00 | 81 | 1065.5 |
| 20260508224557 | 48 | 135 | 4.3 | 0.0 | 0.00 | 0.00 | 0.00 | 81 | 1065.5 |
| 20260508224443 | 48 | 135 | 3.5 | 0.0 | 0.00 | 0.00 | 0.00 | 81 | 1065.5 |
| 20260508224322 | 48 | 135 | 4.3 | 0.0 | 0.00 | 0.00 | 0.00 | 81 | 1065.6 |
| 20260508224217 | 48 | 135 | 0.0 | 0.0 | 0.00 | 0.00 | 0.00 | 81 | 1065.5 |
| 20260508224058 | 48 | 135 | 0.0 | 0.0 | 0.00 | 0.00 | 0.00 | 81 | 1065.5 |
| 20260508223951 | 48 | 135 | 2.6 | 0.0 | 0.00 | 0.00 | 0.00 | 81 | 1065.6 |
| 20260508223837 | 48 | 135 | 1.7 | 0.0 | 0.00 | 0.00 | 0.00 | 81 | 1065.6 |
| 20260508223726 | 48 | 135 | 3.5 | 0.0 | 0.00 | 0.00 | 0.00 | 81 | 1065.6 |
| 20260508223619 | 48 | 157 | 2.6 | 0.0 | 0.00 | 0.00 | 0.00 | 80 | 1065.6 |
| 20260508223458 | 48 | 135 | 0.0 | 0.0 | 0.00 | 0.00 | 0.00 | 80 | 1065.6 |
| 20260508223329 | 48 | 135 | 0.0 | 0.0 | 0.00 | 0.00 | 0.00 | 80 | 1065.6 |
| 20260508223216 | 48 | 112 | 0.0 | 0.0 | 0.00 | 0.00 | 0.00 | 80 | 1065.6 |
| 20260508223054 | 48 | 112 | 0.0 | 0.0 | 0.00 | 0.00 | 0.00 | 80 | 1065.6 |
| 20260508222925 | 48 | 112 | 0.0 | 0.0 | 0.00 | 0.00 | 0.00 | 80 | 1065.6 |
| 20260508222812 | 48 | 112 | 0.0 | 0.0 | 0.00 | 0.00 | 0.00 | 80 | 1065.6 |
| 20260508222650 | 48 | 112 | 0.0 | 0.0 | 0.00 | 0.00 | 0.00 | 80 | 1065.6 |
| 20260508222529 | 48 | 112 | 0.0 | 0.0 | 0.00 | 0.00 | 0.00 | 80 | 1065.6 |
| 20260508222408 | 48 | 112 | 0.0 | 0.0 | 0.00 | 0.00 | 0.00 | 80 | 1065.6 |
| 20260508222258 | 48 | 112 | 0.0 | 0.0 | 0.00 | 0.00 | 0.00 | 79 | 1065.6 |
| 20260508222149 | 48 | 112 | 0.0 | 0.0 | 0.00 | 0.00 | 0.00 | 79 | 1065.6 |
| 20260508222031 | 48 | 90 | 0.0 | 0.0 | 0.00 | 0.00 | 0.00 | 79 | 1065.6 |
| 20260508221924 | 48 | 90 | 0.0 | 0.0 | 0.00 | 0.00 | 0.00 | 79 | 1065.6 |
| 20260508221810 | 48 | 90 | 0.0 | 0.0 | 0.00 | 0.00 | 0.00 | 79 | 1065.7 |
| 20260508221649 | 48 | 90 | 0.0 | 0.0 | 0.00 | 0.00 | 0.00 | 79 | 1065.7 |